N4ASP-13 Weather Reports


time (UTC)temp
C
wind
direction
speed
KPH
gust
KPH
rain 1hr
cm
rain 24hr
cm
rain mn
cm
humidity
%
barometer
mb
20260902204719 31 5 0.0 1.6 0.00 0.00 0.00 62 1020.8
20260902204616 31 5 0.0 3.2 0.00 0.00 0.00 60 1020.8
20260902204517 31 5 0.0 3.2 0.00 0.00 0.00 58 1020.8
20260902204414 31 5 0.0 3.2 0.00 0.00 0.00 58 1020.8
20260902204314 31 0 0.0 3.2 0.00 0.00 0.00 59 1020.8
20260902204215 31 0 0.0 3.2 0.00 0.00 0.00 61 1020.8
20260902204114 31 0 0.0 3.2 0.00 0.00 0.00 58 1020.8
20260902204015 31 5 0.0 3.2 0.00 0.00 0.00 59 1020.8
20260902203913 31 5 0.0 4.8 0.00 0.00 0.00 59 1020.9
20260902203812 31 331 0.0 4.8 0.00 0.00 0.00 61 1020.8
20260902203711 31 331 0.0 4.8 0.00 0.00 0.00 60 1020.8
20260902203613 31 11 0.0 4.8 0.00 0.00 0.00 59 1020.8
20260902203513 31 26 0.0 4.8 0.00 0.00 0.00 58 1020.8
20260902203412 31 26 0.0 4.8 0.00 0.00 0.00 61 1020.8
20260902203311 31 27 0.0 4.8 0.00 0.00 0.00 59 1020.7
20260902203213 31 26 0.0 4.8 0.00 0.00 0.00 59 1020.8
20260902203111 31 26 0.0 4.8 0.00 0.00 0.00 59 1020.8
20260902203005 31 37 0.0 4.8 0.00 0.00 0.00 57 1020.8
20260902202906 31 23 0.0 4.8 0.00 0.00 0.00 58 1020.8
20260902202805 31 0 0.0 4.8 0.00 0.00 0.00 60 1020.8
20260902202706 31 16 0.0 4.8 0.00 0.00 0.00 62 1020.8
20260902202606 31 39 0.0 4.8 0.00 0.00 0.00 59 1020.8
20260902202505 31 20 0.0 4.8 0.00 0.00 0.00 61 1020.8
20260902202405 31 13 0.0 4.8 0.00 0.00 0.00 60 1020.8
20260902202306 31 59 0.0 4.8 0.00 0.00 0.00 62 1020.8
20260902202206 31 355 0.0 3.2 0.00 0.00 0.00 60 1020.8
20260902202105 31 355 0.0 3.2 0.00 0.00 0.00 59 1020.8
20260902202006 31 355 0.0 3.2 0.00 0.00 0.00 59 1020.9
20260902201905 31 38 0.0 0.0 0.00 0.00 0.00 59 1020.9
20260902201807 31 38 0.0 0.0 0.00 0.00 0.00 61 1020.9
20260902201707 31 36 0.0 0.0 0.00 0.00 0.00 62 1020.9
20260902201605 31 51 0.0 0.0 0.00 0.00 0.00 62 1020.9
20260902201507 31 10 0.0 0.0 0.00 0.00 0.00 63 1020.9
20260902201407 31 9 0.0 0.0 0.00 0.00 0.00 60 1020.8
20260902201300 31 9 0.0 0.0 0.00 0.00 0.00 59 1020.9
20260902201159 31 10 0.0 0.0 0.00 0.00 0.00 60 1020.9
20260902201100 31 74 0.0 0.0 0.00 0.00 0.00 60 1020.9
20260902201001 31 84 0.0 0.0 0.00 0.00 0.00 61 1020.9
20260902200901 31 46 0.0 0.0 0.00 0.00 0.00 59 1020.9
20260902200757 31 36 0.0 0.0 0.00 0.00 0.00 60 1021.0
20260902200655 31 55 0.0 0.0 0.00 0.00 0.00 60 1021.0
20260902200553 31 37 0.0 0.0 0.00 0.00 0.00 61 1020.9
20260902200455 31 12 0.0 0.0 0.00 0.00 0.00 60 1021.0
20260902200352 31 326 0.0 0.0 0.00 0.00 0.00 61 1021.0
20260902200245 31 325 0.0 0.0 0.00 0.00 0.00 62 1021.0
20260902200147 31 298 0.0 0.0 0.00 0.00 0.00 63 1021.0
20260902200046 31 330 0.0 0.0 0.00 0.00 0.00 60 1021.0
20260902195943 31 329 0.0 0.0 0.00 0.00 0.00 58 1021.1
20260902195843 31 323 0.0 0.0 0.00 0.00 0.00 58 1020.9
20260902195738 31 323 0.0 0.0 0.00 0.00 0.00 58 1021.0
20260902195637 31 321 0.0 0.0 0.00 0.00 0.00 62 1021.0
20260902195536 31 338 0.0 0.0 0.00 0.00 0.00 59 1020.9
20260902195436 31 323 0.0 0.0 0.00 0.00 0.00 59 1021.0
20260902195337 31 320 0.0 0.0 0.00 0.00 0.00 60 1021.0
20260902195233 31 324 0.0 0.0 0.00 0.00 0.00 60 1021.0
20260902195130 31 324 0.0 0.0 0.00 0.00 0.00 60 1021.0
20260902195031 31 324 0.0 0.0 0.00 0.00 0.00 61 1021.1
20260902194931 31 323 0.0 0.0 0.00 0.00 0.00 60 1021.1
20260902194831 31 62 0.0 0.0 0.00 0.00 0.00 60 1021.1
20260902194731 31 44 0.0 0.0 0.00 0.00 0.00 61 1021.1
20260902194629 31 31 0.0 0.0 0.00 0.00 0.00 59 1021.0
20260902194528 31 31 0.0 0.0 0.00 0.00 0.00 59 1021.1
20260902194428 31 28 0.0 0.0 0.00 0.00 0.00 60 1021.2
20260902194325 31 66 0.0 0.0 0.00 0.00 0.00 59 1021.2
20260902194226 31 71 0.0 0.0 0.00 0.00 0.00 60 1021.1
20260902194125 31 71 0.0 0.0 0.00 0.00 0.00 59 1021.2
20260902194021 31 5 0.0 0.0 0.00 0.00 0.00 59 1021.2
20260902193923 31 355 0.0 0.0 0.00 0.00 0.00 60 1021.2
20260902193821 31 28 0.0 0.0 0.00 0.00 0.00 60 1021.2
20260902193721 31 42 0.0 0.0 0.00 0.00 0.00 58 1021.3
20260902193619 31 42 0.0 0.0 0.00 0.00 0.00 59 1021.2
20260902193519 31 43 0.0 0.0 0.00 0.00 0.00 60 1021.3
20260902193417 31 43 0.0 0.0 0.00 0.00 0.00 62 1021.4
20260902193319 31 337 0.0 0.0 0.00 0.00 0.00 60 1021.4
20260902193219 31 337 0.0 0.0 0.00 0.00 0.00 60 1021.3
20260902193117 31 5 0.0 0.0 0.00 0.00 0.00 60 1021.3
20260902193016 31 5 0.0 0.0 0.00 0.00 0.00 62 1021.3
20260902192914 31 53 0.0 0.0 0.00 0.00 0.00 60 1021.3
20260902192815 31 40 0.0 0.0 0.00 0.00 0.00 62 1021.3
20260902192712 31 344 0.0 0.0 0.00 0.00 0.00 62 1021.3
20260902192613 31 342 0.0 0.0 0.00 0.00 0.00 61 1021.4
20260902192506 31 342 0.0 0.0 0.00 0.00 0.00 59 1021.4
20260902192405 31 328 0.0 0.0 0.00 0.00 0.00 60 1021.3
20260902192307 31 334 0.0 0.0 0.00 0.00 0.00 62 1021.3
20260902192205 31 325 0.0 0.0 0.00 0.00 0.00 63 1021.3
20260902192106 31 348 0.0 0.0 0.00 0.00 0.00 65 1021.3
20260902192006 31 49 0.0 0.0 0.00 0.00 0.00 61 1021.4
20260902191905 31 49 0.0 0.0 0.00 0.00 0.00 61 1021.4
20260902191806 31 45 0.0 0.0 0.00 0.00 0.00 62 1021.3
20260902191705 31 28 0.0 0.0 0.00 0.00 0.00 59 1021.4
20260902191606 31 26 0.0 0.0 0.00 0.00 0.00 62 1021.3
20260902191506 31 13 0.0 0.0 0.00 0.00 0.00 62 1021.3
20260902191407 31 9 0.0 0.0 0.00 0.00 0.00 64 1021.4
20260902191306 31 20 0.0 0.0 0.00 0.00 0.00 61 1021.4
20260902191207 31 14 0.0 0.0 0.00 0.00 0.00 63 1021.4
20260902191105 31 14 0.0 0.0 0.00 0.00 0.00 61 1021.4
20260902191005 31 17 0.0 0.0 0.00 0.00 0.00 60 1021.4
20260902190907 31 336 0.0 0.0 0.00 0.00 0.00 61 1021.4
20260902190804 31 347 0.0 0.0 0.00 0.00 0.00 60 1021.5
20260902190705 31 346 0.0 0.0 0.00 0.00 0.00 60 1021.4
20260902190603 31 346 0.0 0.0 0.00 0.00 0.00 62 1021.4
20260902190502 31 280 0.0 0.0 0.00 0.00 0.00 62 1021.4
20260902190401 31 327 0.0 0.0 0.00 0.00 0.00 63 1021.4
20260902190302 31 329 0.0 0.0 0.00 0.00 0.00 61 1021.3
20260902190202 31 351 0.0 0.0 0.00 0.00 0.00 64 1021.4
20260902190002 31 26 0.0 0.0 0.00 0.00 0.00 62 1021.4
20260902185903 31 355 0.0 0.0 0.00 0.00 0.00 62 1021.5
20260902185801 31 5 0.0 0.0 0.00 0.00 0.00 63 1021.4
20260902185703 31 9 0.0 0.0 0.00 0.00 0.00 62 1021.5
20260902185602 31 53 0.0 0.0 0.00 0.00 0.00 65 1021.5
20260902185503 31 54 0.0 0.0 0.00 0.00 0.00 61 1021.5
20260902185359 31 22 0.0 0.0 0.00 0.00 0.00 62 1021.5
20260902185301 31 355 0.0 0.0 0.00 0.00 0.00 62 1021.5
20260902185200 31 24 0.0 0.0 0.00 0.00 0.00 62 1021.6
20260902185057 31 23 0.0 0.0 0.00 0.00 0.00 63 1021.6
20260902184959 31 25 0.0 0.0 0.00 0.00 0.00 61 1021.6
20260902184859 31 20 0.0 0.0 0.00 0.00 0.00 61 1021.6
20260902184758 31 337 0.0 0.0 0.00 0.00 0.00 63 1021.6
20260902184657 31 329 0.0 0.0 0.00 0.00 0.00 64 1021.5
20260902184557 31 355 0.0 0.0 0.00 0.00 0.00 65 1021.6
20260902184458 31 329 0.0 0.0 0.00 0.00 0.00 64 1021.6
20260902184351 31 342 0.0 6.4 0.00 0.00 0.00 65 1021.7
20260902184250 31 13 0.0 6.4 0.00 0.00 0.00 63 1021.6
20260902184149 31 13 0.0 6.4 0.00 0.00 0.00 62 1021.6
20260902184051 31 13 0.0 6.4 0.00 0.00 0.00 63 1021.7
20260902183949 31 13 0.0 6.4 0.00 0.00 0.00 61 1021.7
20260902183850 31 45 0.0 6.4 0.00 0.00 0.00 61 1021.7
20260902183749 31 45 1.6 6.4 0.00 0.00 0.00 61 1021.9
20260902183649 31 42 1.6 6.4 0.00 0.00 0.00 60 1021.9
20260902183550 31 239 1.6 6.4 0.00 0.00 0.00 60 1021.9
20260902183449 31 238 1.6 6.4 0.00 0.00 0.00 60 1021.9
20260902183351 31 275 1.6 8.0 0.00 0.00 0.00 61 1021.7
20260902183249 31 294 1.6 12.9 0.00 0.00 0.00 63 1021.7
20260902183149 31 342 1.6 12.9 0.00 0.00 0.00 63 1021.7
20260902183050 31 23 3.2 12.9 0.00 0.00 0.00 62 1021.7
20260902182949 31 22 3.2 12.9 0.00 0.00 0.00 64 1021.9
20260902182849 31 14 3.2 12.9 0.00 0.00 0.00 65 1021.9
20260902182751 30 10 3.2 12.9 0.00 0.00 0.00 64 1021.7
20260902182651 30 5 3.2 12.9 0.00 0.00 0.00 63 1021.7
20260902182549 30 5 3.2 12.9 0.00 0.00 0.00 62 1021.9
20260902182449 30 5 3.2 12.9 0.00 0.00 0.00 62 1021.6
20260902182351 30 5 1.6 12.9 0.00 0.00 0.00 62 1021.7
20260902182250 30 19 1.6 11.3 0.00 0.00 0.00 63 1021.7
20260902182150 31 355 1.6 11.3 0.00 0.00 0.00 63 1021.6
20260902182049 30 342 1.6 11.3 0.00 0.00 0.00 63 1021.7
20260902181949 31 5 0.0 6.4 0.00 0.00 0.00 64 1021.7
20260902181851 30 319 1.6 6.4 0.00 0.00 0.00 62 1021.9
20260902181750 30 19 1.6 6.4 0.00 0.00 0.00 61 1021.6
20260902181650 30 19 1.6 8.0 0.00 0.00 0.00 62 1021.9
20260902181549 31 15 1.6 11.3 0.00 0.00 0.00 64 1021.9
20260902181450 31 315 1.6 11.3 0.00 0.00 0.00 64 1021.7
20260902181351 30 305 1.6 11.3 0.00 0.00 0.00 62 1021.9
20260902181249 30 281 1.6 11.3 0.00 0.00 0.00 64 1021.9
20260902181151 30 339 1.6 11.3 0.00 0.00 0.00 64 1021.9
20260902181046 30 332 1.6 11.3 0.00 0.00 0.00 62 1021.9
20260902180945 30 346 1.6 11.3 0.00 0.00 0.00 64 1021.9
20260902180847 30 22 1.6 11.3 0.00 0.00 0.00 63 1021.9
20260902180745 30 5 1.6 11.3 0.00 0.00 0.00 61 1022.0
20260902180646 30 17 0.0 11.3 0.00 0.00 0.00 63 1021.9
20260902180545 30 9 0.0 6.4 0.00 0.00 0.00 64 1021.7
20260902180447 30 17 0.0 6.4 0.00 0.00 0.00 63 1021.7
20260902180345 30 42 0.0 6.4 0.00 0.00 0.00 63 1021.9
20260902180246 30 13 0.0 6.4 0.00 0.00 0.00 62 1021.9
20260902180147 30 0 0.0 6.4 0.00 0.00 0.00 63 1021.9
20260902180047 30 0 0.0 8.0 0.00 0.00 0.00 66 1021.9
20260902175946 30 44 0.0 8.0 0.00 0.00 0.00 64 1021.9
20260902175847 30 355 1.6 8.0 0.00 0.00 0.00 63 1022.0
20260902175745 30 355 1.6 12.9 0.00 0.00 0.00 66 1021.9
20260902175646 30 342 1.6 12.9 0.00 0.00 0.00 63 1021.9
20260902175545 30 25 1.6 12.9 0.00 0.00 0.00 61 1021.9
20260902175447 30 14 3.2 12.9 0.00 0.00 0.00 63 1022.0
20260902175346 30 13 3.2 12.9 0.00 0.00 0.00 62 1021.9
20260902175246 30 11 3.2 12.9 0.00 0.00 0.00 64 1022.0
20260902175146 30 15 4.8 12.9 0.00 0.00 0.00 65 1022.0
20260902175045 30 355 4.8 12.9 0.00 0.00 0.00 64 1022.0
20260902174947 30 324 4.8 12.9 0.00 0.00 0.00 63 1022.0
20260902174845 30 335 4.8 12.9 0.00 0.00 0.00 63 1022.0
20260902174745 30 342 4.8 11.3 0.00 0.00 0.00 64 1022.0
20260902174647 30 5 6.4 11.3 0.00 0.00 0.00 66 1022.0
20260902174545 30 0 6.4 11.3 0.00 0.00 0.00 67 1022.0
20260902174445 30 11 6.4 12.9 0.00 0.00 0.00 68 1022.0
20260902174345 30 329 4.8 12.9 0.00 0.00 0.00 66 1022.0
20260902174245 30 345 4.8 12.9 0.00 0.00 0.00 64 1022.0
20260902174145 30 304 4.8 12.9 0.00 0.00 0.00 64 1022.0
20260902174046 30 5 4.8 12.9 0.00 0.00 0.00 64 1022.1
20260902173946 30 320 4.8 12.9 0.00 0.00 0.00 64 1022.1
20260902173846 30 348 4.8 12.9 0.00 0.00 0.00 65 1022.1
20260902173745 30 329 4.8 12.9 0.00 0.00 0.00 65 1022.1
20260902173646 30 355 4.8 12.9 0.00 0.00 0.00 67 1022.1
20260902173546 30 331 4.8 12.9 0.00 0.00 0.00 64 1022.2
20260902173447 30 0 4.8 12.9 0.00 0.00 0.00 66 1022.1
20260902173345 30 344 4.8 12.9 0.00 0.00 0.00 68 1022.2
20260902173246 30 342 4.8 12.9 0.00 0.00 0.00 68 1022.2
20260902173147 30 343 4.8 12.9 0.00 0.00 0.00 66 1022.1
20260902173045 30 318 4.8 12.9 0.00 0.00 0.00 64 1022.2
20260902172945 30 320 4.8 12.9 0.00 0.00 0.00 68 1022.1
20260902172846 30 301 4.8 12.9 0.00 0.00 0.00 64 1022.2
20260902172745 30 326 3.2 12.9 0.00 0.00 0.00 67 1022.2
20260902172647 30 325 3.2 9.7 0.00 0.00 0.00 67 1022.2
20260902172546 30 21 3.2 8.0 0.00 0.00 0.00 65 1022.1
20260902172446 30 21 3.2 8.0 0.00 0.00 0.00 64 1022.2
20260902172343 30 327 3.2 8.0 0.00 0.00 0.00 65 1022.1
20260902172241 30 329 3.2 11.3 0.00 0.00 0.00 63 1022.2
20260902172142 30 327 3.2 11.3 0.00 0.00 0.00 64 1022.1
20260902172042 30 326 3.2 11.3 0.00 0.00 0.00 64 1022.3
20260902171941 30 326 3.2 11.3 0.00 0.00 0.00 68 1022.3
20260902171842 30 326 3.2 11.3 0.00 0.00 0.00 65 1022.3
20260902171743 30 314 4.8 11.3 0.00 0.00 0.00 64 1022.2
20260902171641 30 314 4.8 11.3 0.00 0.00 0.00 63 1022.3
20260902171541 30 314 4.8 11.3 0.00 0.00 0.00 65 1022.3
20260902171442 30 313 4.8 11.3 0.00 0.00 0.00 62 1022.3
20260902171343 30 300 4.8 11.3 0.00 0.00 0.00 62 1022.3
20260902171241 30 292 3.2 11.3 0.00 0.00 0.00 63 1022.4
20260902171142 30 306 3.2 11.3 0.00 0.00 0.00 65 1022.4
20260902171041 30 296 3.2 9.7 0.00 0.00 0.00 66 1022.3
20260902170942 30 5 3.2 9.7 0.00 0.00 0.00 67 1022.4
20260902170843 30 5 4.8 9.7 0.00 0.00 0.00 66 1022.2
20260902170741 30 351 4.8 9.7 0.00 0.00 0.00 63 1022.3
20260902170641 30 18 4.8 12.9 0.00 0.00 0.00 64 1022.3
20260902170541 30 284 4.8 12.9 0.00 0.00 0.00 65 1022.2
20260902170443 30 257 4.8 12.9 0.00 0.00 0.00 66 1022.3
20260902170341 30 286 4.8 12.9 0.00 0.00 0.00 65 1022.4
20260902170243 30 288 4.8 12.9 0.00 0.00 0.00 67 1022.4
20260902170142 30 355 4.8 12.9 0.00 0.00 0.00 67 1022.3
20260902170042 30 15 4.8 12.9 0.00 0.00 0.00 67 1022.4
20260902165941 30 355 4.8 12.9 0.00 0.00 0.00 64 1022.3
20260902165843 30 346 4.8 12.9 0.00 0.00 0.00 63 1022.4
20260902165742 30 332 4.8 12.9 0.00 0.00 0.00 64 1022.4
20260902165641 30 315 4.8 11.3 0.00 0.00 0.00 63 1022.4
20260902165542 30 302 4.8 12.9 0.00 0.00 0.00 63 1022.4
20260902165442 30 323 4.8 12.9 0.00 0.00 0.00 64 1022.4
20260902165343 30 323 4.8 12.9 0.00 0.00 0.00 64 1022.4
20260902165242 30 323 4.8 12.9 0.00 0.00 0.00 65 1022.5
20260902165142 30 323 4.8 12.9 0.00 0.00 0.00 66 1022.4
20260902165038 30 338 3.2 12.9 0.00 0.00 0.00 64 1022.4
20260902164937 30 337 4.8 12.9 0.00 0.00 0.00 64 1022.5
20260902164838 30 13 4.8 12.9 0.00 0.00 0.00 67 1022.5
20260902164737 30 355 3.2 12.9 0.00 0.00 0.00 66 1022.6
20260902164637 30 355 3.2 12.9 0.00 0.00 0.00 66 1022.6
20260902164538 30 349 3.2 8.0 0.00 0.00 0.00 65 1022.6
20260902164439 30 348 4.8 8.0 0.00 0.00 0.00 65 1022.5
20260902164337 30 347 4.8 8.0 0.00 0.00 0.00 65 1022.5
20260902164239 30 347 4.8 8.0 0.00 0.00 0.00 64 1022.6
20260902164138 30 347 4.8 8.0 0.00 0.00 0.00 64 1022.5
20260902164038 30 347 4.8 8.0 0.00 0.00 0.00 64 1022.6
20260902163937 30 340 4.8 9.7 0.00 0.00 0.00 65 1022.5
20260902163838 30 340 4.8 9.7 0.00 0.00 0.00 66 1022.5
20260902163737 30 343 4.8 9.7 0.00 0.00 0.00 66 1022.5
20260902163631 30 343 3.2 9.7 0.00 0.00 0.00 67 1022.6
20260902163532 30 334 3.2 9.7 0.00 0.00 0.00 67 1022.6
20260902163431 30 334 3.2 9.7 0.00 0.00 0.00 67 1022.6
20260902163331 30 332 3.2 9.7 0.00 0.00 0.00 65 1022.7
20260902163227 30 303 3.2 9.7 0.00 0.00 0.00 63 1022.7
20260902163127 30 314 3.2 9.7 0.00 0.00 0.00 64 1022.7
20260902163025 30 313 3.2 9.7 0.00 0.00 0.00 67 1022.7
20260902162923 30 327 3.2 8.0 0.00 0.00 0.00 65 1022.7
20260902162823 30 325 3.2 8.0 0.00 0.00 0.00 65 1022.7
20260902162724 30 325 3.2 8.0 0.00 0.00 0.00 62 1022.7
20260902162624 30 325 3.2 8.0 0.00 0.00 0.00 64 1022.9
20260902162523 30 325 3.2 8.0 0.00 0.00 0.00 63 1022.9
20260902162423 30 327 3.2 8.0 0.00 0.00 0.00 63 1022.8
20260902162324 30 327 1.6 8.0 0.00 0.00 0.00 64 1022.9
20260902162222 30 302 1.6 8.0 0.00 0.00 0.00 67 1022.9
20260902162118 30 301 1.6 8.0 0.00 0.00 0.00 66 1022.9
20260902162016 30 311 1.6 8.0 0.00 0.00 0.00 69 1022.8
20260902161917 30 5 0.0 8.0 0.00 0.00 0.00 67 1022.9
20260902161817 30 313 0.0 4.8 0.00 0.00 0.00 67 1022.8
20260902161715 30 42 0.0 4.8 0.00 0.00 0.00 66 1022.9
20260902161607 30 43 0.0 3.2 0.00 0.00 0.00 63 1022.9
20260902161508 29 43 0.0 3.2 0.00 0.00 0.00 64 1022.9
20260902161409 29 43 0.0 3.2 0.00 0.00 0.00 63 1022.9
20260902161308 29 43 0.0 3.2 0.00 0.00 0.00 67 1022.9
20260902161208 29 43 0.0 3.2 0.00 0.00 0.00 64 1022.9
20260902161105 29 43 0.0 3.2 0.00 0.00 0.00 63 1022.9
20260902161005 29 43 0.0 3.2 0.00 0.00 0.00 63 1022.9
20260902160905 29 44 0.0 3.2 0.00 0.00 0.00 63 1022.9
20260902160805 29 43 0.0 3.2 0.00 0.00 0.00 63 1022.9
20260902160706 30 42 0.0 0.0 0.00 0.00 0.00 66 1022.9
20260902160605 29 39 0.0 0.0 0.00 0.00 0.00 65 1022.9
20260902160505 30 345 0.0 0.0 0.00 0.00 0.00 66 1022.9
20260902160406 29 346 0.0 0.0 0.00 0.00 0.00 63 1023.0
20260902160305 29 346 0.0 0.0 0.00 0.00 0.00 64 1023.0
20260902160205 29 346 0.0 0.0 0.00 0.00 0.00 65 1022.9
20260902160104 29 346 0.0 0.0 0.00 0.00 0.00 64 1022.9
20260902160007 29 347 0.0 0.0 0.00 0.00 0.00 64 1022.9
20260902155859 29 30 0.0 0.0 0.00 0.00 0.00 64 1022.9
20260902155801 29 17 0.0 0.0 0.00 0.00 0.00 62 1022.9
20260902155658 29 17 0.0 1.6 0.00 0.00 0.00 63 1022.9
20260902155558 29 17 0.0 1.6 0.00 0.00 0.00 65 1022.9
20260902155456 29 9 0.0 3.2 0.00 0.00 0.00 64 1022.9
20260902155357 29 5 0.0 3.2 0.00 0.00 0.00 66 1022.8
20260902155253 29 348 0.0 3.2 0.00 0.00 0.00 67 1022.9
20260902155153 29 0 0.0 3.2 0.00 0.00 0.00 66 1022.9
20260902155055 29 0 0.0 3.2 0.00 0.00 0.00 67 1022.8
20260902154952 29 0 0.0 3.2 0.00 0.00 0.00 64 1022.8
20260902154847 29 355 0.0 3.2 0.00 0.00 0.00 66 1022.9
20260902154745 29 355 0.0 3.2 0.00 0.00 0.00 67 1022.9
20260902154645 29 50 0.0 3.2 0.00 0.00 0.00 66 1022.9
20260902154545 29 50 0.0 3.2 0.00 0.00 0.00 68 1022.9
20260902154445 29 53 0.0 3.2 0.00 0.00 0.00 66 1022.8
20260902154344 29 49 0.0 0.0 0.00 0.00 0.00 69 1022.8
20260902154241 29 12 0.0 0.0 0.00 0.00 0.00 68 1022.9
20260902154142 29 5 0.0 0.0 0.00 0.00 0.00 70 1022.9
20260902154040 29 340 0.0 0.0 0.00 0.00 0.00 69 1022.9
20260902153937 29 339 0.0 0.0 0.00 0.00 0.00 70 1022.9
20260902153834 29 325 0.0 0.0 0.00 0.00 0.00 68 1022.8
20260902153733 29 322 0.0 0.0 0.00 0.00 0.00 70 1022.9
20260902153629 29 340 0.0 0.0 0.00 0.00 0.00 69 1022.9
20260902153530 29 344 0.0 0.0 0.00 0.00 0.00 70 1022.8
20260902153427 29 346 0.0 0.0 0.00 0.00 0.00 68 1022.9
20260902153327 29 329 0.0 0.0 0.00 0.00 0.00 70 1022.8
20260902153227 29 23 0.0 0.0 0.00 0.00 0.00 69 1022.9
20260902153127 29 19 0.0 0.0 0.00 0.00 0.00 69 1022.9
20260902153027 29 19 0.0 0.0 0.00 0.00 0.00 68 1022.9
20260902152929 29 19 0.0 0.0 0.00 0.00 0.00 69 1022.9
20260902152828 29 5 0.0 0.0 0.00 0.00 0.00 70 1022.9
20260902152726 29 9 0.0 0.0 0.00 0.00 0.00 70 1022.9
20260902152627 29 328 0.0 0.0 0.00 0.00 0.00 69 1022.9
20260902152525 29 328 0.0 0.0 0.00 0.00 0.00 69 1022.9
20260902152426 29 328 0.0 0.0 0.00 0.00 0.00 70 1022.9
20260902152324 29 328 0.0 0.0 0.00 0.00 0.00 72 1022.9
20260902152221 29 328 0.0 0.0 0.00 0.00 0.00 70 1022.9
20260902152122 29 329 0.0 0.0 0.00 0.00 0.00 71 1022.8
20260902152021 29 335 0.0 0.0 0.00 0.00 0.00 72 1022.8
20260902151922 29 338 0.0 0.0 0.00 0.00 0.00 71 1022.8
20260902151821 29 338 0.0 0.0 0.00 0.00 0.00 71 1022.8
20260902151722 29 340 0.0 0.0 0.00 0.00 0.00 71 1022.7
20260902151618 29 355 0.0 0.0 0.00 0.00 0.00 69 1022.7
20260902151518 29 355 0.0 0.0 0.00 0.00 0.00 70 1022.8
20260902151417 29 355 0.0 0.0 0.00 0.00 0.00 69 1022.8
20260902151317 29 0 0.0 0.0 0.00 0.00 0.00 69 1022.8
20260902151215 29 355 0.0 0.0 0.00 0.00 0.00 70 1022.7
20260902151108 29 355 0.0 0.0 0.00 0.00 0.00 69 1022.7
20260902151007 29 355 0.0 0.0 0.00 0.00 0.00 70 1022.7
20260902150908 29 355 0.0 0.0 0.00 0.00 0.00 72 1022.7
20260902150809 28 340 0.0 0.0 0.00 0.00 0.00 68 1022.7
20260902150708 29 341 0.0 0.0 0.00 0.00 0.00 67 1022.7
20260902150559 29 340 0.0 0.0 0.00 0.00 0.00 67 1022.8
20260902150459 29 344 0.0 0.0 0.00 0.00 0.00 67 1022.8
20260902150401 29 25 0.0 0.0 0.00 0.00 0.00 67 1022.9
20260902150300 29 25 0.0 0.0 0.00 0.00 0.00 69 1022.8
20260902150157 29 26 0.0 0.0 0.00 0.00 0.00 69 1022.8
20260902150053 29 28 0.0 0.0 0.00 0.00 0.00 69 1022.8
20260902145952 29 21 0.0 0.0 0.00 0.00 0.00 67 1022.8
20260902145853 29 22 0.0 0.0 0.00 0.00 0.00 68 1022.8
20260902145754 29 313 0.0 0.0 0.00 0.00 0.00 68 1022.8
20260902145652 29 355 0.0 0.0 0.00 0.00 0.00 69 1022.8
20260902145552 29 18 0.0 0.0 0.00 0.00 0.00 69 1022.8
20260902145450 29 13 0.0 0.0 0.00 0.00 0.00 68 1022.8
20260902145348 29 13 0.0 0.0 0.00 0.00 0.00 71 1022.7
20260902145249 29 13 0.0 0.0 0.00 0.00 0.00 70 1022.8
20260902145145 29 12 0.0 0.0 0.00 0.00 0.00 72 1022.8
20260902145042 29 340 0.0 0.0 0.00 0.00 0.00 68 1022.8
20260902144940 29 331 0.0 0.0 0.00 0.00 0.00 67 1022.8
20260902144838 29 331 0.0 0.0 0.00 0.00 0.00 68 1022.7
20260902144739 29 331 0.0 0.0 0.00 0.00 0.00 69 1022.7
20260902144635 29 0 0.0 0.0 0.00 0.00 0.00 70 1022.7
20260902144529 29 355 0.0 0.0 0.00 0.00 0.00 68 1022.7
20260902144429 29 355 0.0 0.0 0.00 0.00 0.00 68 1022.7
20260902144329 29 5 0.0 0.0 0.00 0.00 0.00 72 1022.7
20260902144229 29 13 0.0 0.0 0.00 0.00 0.00 72 1022.7
20260902144127 29 13 0.0 0.0 0.00 0.00 0.00 73 1022.6
20260902144024 29 10 0.0 0.0 0.00 0.00 0.00 72 1022.6
20260902143923 29 10 0.0 0.0 0.00 0.00 0.00 72 1022.7
20260902143821 28 10 0.0 0.0 0.00 0.00 0.00 70 1022.6
20260902143721 28 9 0.0 0.0 0.00 0.00 0.00 71 1022.6
20260902143620 28 9 0.0 0.0 0.00 0.00 0.00 69 1022.6
20260902143511 28 9 0.0 0.0 0.00 0.00 0.00 75 1022.6
20260902143409 28 9 0.0 0.0 0.00 0.00 0.00 73 1022.6
20260902143311 28 9 0.0 0.0 0.00 0.00 0.00 75 1022.5
20260902143210 28 9 0.0 0.0 0.00 0.00 0.00 74 1022.5
20260902143110 28 9 0.0 0.0 0.00 0.00 0.00 76 1022.5
20260902143005 28 9 0.0 0.0 0.00 0.00 0.00 74 1022.6
20260902142904 28 9 0.0 0.0 0.00 0.00 0.00 73 1022.6
20260902142804 28 9 0.0 0.0 0.00 0.00 0.00 75 1022.6
20260902142705 28 14 0.0 0.0 0.00 0.00 0.00 75 1022.6
20260902142605 28 340 0.0 0.0 0.00 0.00 0.00 75 1022.6
20260902142500 28 340 0.0 0.0 0.00 0.00 0.00 73 1022.6
20260902142358 28 339 0.0 0.0 0.00 0.00 0.00 73 1022.5
20260902142257 28 339 0.0 0.0 0.00 0.00 0.00 73 1022.5
20260902142157 28 349 0.0 0.0 0.00 0.00 0.00 74 1022.5
20260902142058 28 349 0.0 0.0 0.00 0.00 0.00 75 1022.6
20260902141955 28 349 0.0 1.6 0.00 0.00 0.00 73 1022.6
20260902141851 28 350 0.0 1.6 0.00 0.00 0.00 73 1022.5
20260902141751 28 350 0.0 1.6 0.00 0.00 0.00 73 1022.6
20260902141650 28 350 0.0 1.6 0.00 0.00 0.00 74 1022.5
20260902141549 28 350 0.0 4.8 0.00 0.00 0.00 74 1022.5
20260902141444 28 351 0.0 4.8 0.00 0.00 0.00 73 1022.5
20260902141343 28 350 0.0 4.8 0.00 0.00 0.00 72 1022.6
20260902141244 28 351 0.0 4.8 0.00 0.00 0.00 73 1022.5
20260902141142 28 350 0.0 4.8 0.00 0.00 0.00 72 1022.5
20260902141039 28 350 0.0 4.8 0.00 0.00 0.00 73 1022.6
20260902140937 28 332 0.0 4.8 0.00 0.00 0.00 75 1022.5
20260902140837 28 330 0.0 4.8 0.00 0.00 0.00 74 1022.4
20260902140736 28 329 0.0 4.8 0.00 0.00 0.00 71 1022.5
20260902140636 28 328 0.0 4.8 0.00 0.00 0.00 72 1022.5
20260902140533 28 329 0.0 3.2 0.00 0.00 0.00 74 1022.4
20260902140427 28 329 0.0 3.2 0.00 0.00 0.00 73 1022.5
20260902140328 28 326 0.0 3.2 0.00 0.00 0.00 74 1022.5
20260902140227 28 325 0.0 3.2 0.00 0.00 0.00 73 1022.5
20260902140127 28 325 0.0 3.2 0.00 0.00 0.00 73 1022.5
20260902140024 28 325 0.0 3.2 0.00 0.00 0.00 72 1022.5
20260902135920 28 321 0.0 3.2 0.00 0.00 0.00 72 1022.6
20260902135817 28 321 0.0 3.2 0.00 0.00 0.00 73 1022.5
20260902135717 28 333 0.0 1.6 0.00 0.00 0.00 71 1022.5
20260902135618 28 331 0.0 1.6 0.00 0.00 0.00 74 1022.5
20260902135517 28 339 0.0 1.6 0.00 0.00 0.00 74 1022.5
20260902135418 28 335 0.0 1.6 0.00 0.00 0.00 74 1022.5
20260902135315 28 333 0.0 1.6 0.00 0.00 0.00 74 1022.5
20260902135215 28 333 0.0 1.6 0.00 0.00 0.00 75 1022.5
20260902135113 28 333 0.0 1.6 0.00 0.00 0.00 77 1022.5
20260902135012 28 333 0.0 1.6 0.00 0.00 0.00 75 1022.5
20260902134905 28 331 0.0 1.6 0.00 0.00 0.00 75 1022.5
20260902134801 27 330 0.0 1.6 0.00 0.00 0.00 73 1022.6
20260902134701 27 330 0.0 1.6 0.00 0.00 0.00 76 1022.5
20260902134602 27 333 0.0 0.0 0.00 0.00 0.00 76 1022.5
20260902134502 27 333 0.0 0.0 0.00 0.00 0.00 76 1022.5
20260902134400 27 332 0.0 0.0 0.00 0.00 0.00 76 1022.5
20260902134259 27 332 0.0 0.0 0.00 0.00 0.00 77 1022.5
20260902134159 27 332 0.0 0.0 0.00 0.00 0.00 77 1022.5
20260902134058 27 331 0.0 0.0 0.00 0.00 0.00 77 1022.5
20260902133956 27 331 0.0 0.0 0.00 0.00 0.00 75 1022.5
20260902133853 27 331 0.0 0.0 0.00 0.00 0.00 77 1022.5
20260902133754 27 331 0.0 0.0 0.00 0.00 0.00 76 1022.4
20260902133651 27 331 0.0 0.0 0.00 0.00 0.00 76 1022.4
20260902133553 27 330 0.0 0.0 0.00 0.00 0.00 77 1022.5
20260902133450 27 329 0.0 0.0 0.00 0.00 0.00 76 1022.5
20260902133343 27 319 0.0 0.0 0.00 0.00 0.00 77 1022.5
20260902133245 27 321 0.0 0.0 0.00 0.00 0.00 77 1022.5
20260902133144 27 321 0.0 0.0 0.00 0.00 0.00 76 1022.5
20260902133042 27 320 0.0 0.0 0.00 0.00 0.00 78 1022.5
20260902132939 27 304 0.0 0.0 0.00 0.00 0.00 76 1022.4
20260902132839 27 304 0.0 0.0 0.00 0.00 0.00 76 1022.5
20260902132738 27 304 0.0 0.0 0.00 0.00 0.00 77 1022.4
20260902132638 27 304 0.0 0.0 0.00 0.00 0.00 78 1022.4
20260902132535 27 303 0.0 0.0 0.00 0.00 0.00 77 1022.5
20260902132434 27 303 0.0 0.0 0.00 0.00 0.00 76 1022.5
20260902132333 27 303 0.0 0.0 0.00 0.00 0.00 77 1022.5
20260902132232 27 302 0.0 0.0 0.00 0.00 0.00 76 1022.5
20260902132128 27 303 0.0 0.0 0.00 0.00 0.00 76 1022.5
20260902132030 26 303 0.0 0.0 0.00 0.00 0.00 76 1022.5
20260902131928 26 304 0.0 0.0 0.00 0.00 0.00 77 1022.5
20260902131822 26 303 0.0 0.0 0.00 0.00 0.00 79 1022.5
20260902131722 26 304 0.0 0.0 0.00 0.00 0.00 79 1022.5
20260902131621 26 303 0.0 0.0 0.00 0.00 0.00 78 1022.5
20260902131520 26 302 0.0 0.0 0.00 0.00 0.00 79 1022.5
20260902131418 26 302 0.0 0.0 0.00 0.00 0.00 77 1022.5
20260902131314 26 302 0.0 0.0 0.00 0.00 0.00 78 1022.5
20260902131217 26 302 0.0 0.0 0.00 0.00 0.00 78 1022.5
20260902131115 26 302 0.0 0.0 0.00 0.00 0.00 78 1022.5
20260902131015 26 303 0.0 4.8 0.00 0.00 0.00 77 1022.5
20260902130912 26 305 1.6 6.4 0.00 0.00 0.00 78 1022.5
20260902130808 26 305 1.6 6.4 0.00 0.00 0.00 77 1022.5
20260902130706 26 309 1.6 6.4 0.00 0.00 0.00 77 1022.5
20260902130606 26 308 1.6 6.4 0.00 0.00 0.00 78 1022.5
20260902130505 26 309 1.6 6.4 0.00 0.00 0.00 78 1022.5
20260902130406 26 309 3.2 6.4 0.00 0.00 0.00 79 1022.5
20260902130256 26 309 3.2 6.4 0.00 0.00 0.00 79 1022.5
20260902130155 26 309 3.2 6.4 0.00 0.00 0.00 79 1022.5
20260902130057 26 302 3.2 6.4 0.00 0.00 0.00 79 1022.5
20260902125955 26 344 3.2 6.4 0.00 0.00 0.00 78 1022.5
20260902125856 26 344 3.2 4.8 0.00 0.00 0.00 80 1022.5
20260902125755 26 344 3.2 6.4 0.00 0.00 0.00 79 1022.5
20260902125654 26 350 3.2 6.4 0.00 0.00 0.00 79 1022.6
20260902125552 26 350 3.2 6.4 0.00 0.00 0.00 79 1022.6
20260902125451 26 350 3.2 6.4 0.00 0.00 0.00 78 1022.5
20260902125350 26 350 3.2 6.4 0.00 0.00 0.00 79 1022.6
20260902125246 26 346 3.2 6.4 0.00 0.00 0.00 79 1022.6
20260902125144 26 63 3.2 6.4 0.00 0.00 0.00 79 1022.5
20260902125045 26 227 3.2 6.4 0.00 0.00 0.00 79 1022.6
20260902124945 26 226 3.2 6.4 0.00 0.00 0.00 80 1022.5
20260902124844 26 225 3.2 4.8 0.00 0.00 0.00 79 1022.6
20260902124736 26 226 3.2 4.8 0.00 0.00 0.00 80 1022.6
20260902124633 26 226 3.2 4.8 0.00 0.00 0.00 80 1022.6
20260902124535 26 226 3.2 4.8 0.00 0.00 0.00 80 1022.6
20260902124432 26 225 3.2 4.8 0.00 0.00 0.00 81 1022.6
20260902124333 25 225 3.2 4.8 0.00 0.00 0.00 80 1022.6
20260902124230 25 225 3.2 4.8 0.00 0.00 0.00 79 1022.7
20260902124128 25 225 3.2 4.8 0.00 0.00 0.00 80 1022.6
20260902124026 25 225 3.2 4.8 0.00 0.00 0.00 80 1022.6
20260902123927 25 220 3.2 6.4 0.00 0.00 0.00 80 1022.6
20260902123827 25 261 3.2 6.4 0.00 0.00 0.00 79 1022.5
20260902123725 25 261 3.2 6.4 0.00 0.00 0.00 80 1022.6
20260902123627 25 11 3.2 6.4 0.00 0.00 0.00 80 1022.6
20260902123523 25 11 3.2 6.4 0.00 0.00 0.00 79 1022.6
20260902123424 25 11 3.2 6.4 0.00 0.00 0.00 79 1022.6
20260902123322 25 11 3.2 6.4 0.00 0.00 0.00 79 1022.6
20260902123214 25 12 3.2 6.4 0.00 0.00 0.00 79 1022.6
20260902123111 25 12 3.2 6.4 0.00 0.00 0.00 79 1022.5
20260902123012 25 13 3.2 6.4 0.00 0.00 0.00 79 1022.6
20260902122911 25 13 3.2 4.8 0.00 0.00 0.00 80 1022.5
20260902122812 25 14 3.2 6.4 0.00 0.00 0.00 79 1022.6
20260902122707 25 14 3.2 6.4 0.00 0.00 0.00 80 1022.6
20260902122607 25 14 3.2 6.4 0.00 0.00 0.00 80 1022.6
20260902122507 25 16 3.2 6.4 0.00 0.00 0.00 80 1022.4
20260902122407 25 38 3.2 6.4 0.00 0.00 0.00 79 1022.5
20260902122306 25 296 3.2 6.4 0.00 0.00 0.00 79 1022.5
20260902122202 25 331 3.2 6.4 0.00 0.00 0.00 80 1022.4
20260902122059 25 284 3.2 6.4 0.00 0.00 0.00 79 1022.5
20260902122000 25 284 3.2 6.4 0.00 0.00 0.00 80 1022.4
20260902121900 25 284 4.8 6.4 0.00 0.00 0.00 80 1022.4
20260902121759 25 277 4.8 6.4 0.00 0.00 0.00 80 1022.4
20260902121651 25 277 4.8 6.4 0.00 0.00 0.00 79 1022.4
20260902121551 25 277 3.2 6.4 0.00 0.00 0.00 79 1022.3
20260902121453 25 296 3.2 6.4 0.00 0.00 0.00 80 1022.4
20260902121352 25 303 3.2 6.4 0.00 0.00 0.00 80 1022.4
20260902121249 25 300 3.2 6.4 0.00 0.00 0.00 79 1022.4
20260902121149 25 298 1.6 6.4 0.00 0.00 0.00 81 1022.3
20260902121048 25 300 1.6 6.4 0.00 0.00 0.00 80 1022.3
20260902120945 25 302 1.6 6.4 0.00 0.00 0.00 80 1022.4
20260902120845 25 309 0.0 6.4 0.00 0.00 0.00 81 1022.4
20260902120744 25 311 0.0 6.4 0.00 0.00 0.00 80 1022.4
20260902120644 25 275 0.0 4.8 0.00 0.00 0.00 81 1022.3
20260902120540 25 275 0.0 0.0 0.00 0.00 0.00 80 1022.3
20260902120441 25 275 0.0 0.0 0.00 0.00 0.00 80 1022.4
20260902120340 25 273 0.0 0.0 0.00 0.00 0.00 80 1022.3
20260902120238 25 272 0.0 0.0 0.00 0.00 0.00 80 1022.3
20260902120137 25 273 0.0 0.0 0.00 0.00 0.00 80 1022.3
20260902120036 25 269 0.0 0.0 0.00 0.00 0.00 79 1022.3
20260902115936 25 268 0.0 0.0 0.00 0.00 0.00 79 1022.3
20260902115832 25 267 0.0 0.0 0.00 0.00 0.00 80 1022.3
20260902115734 25 267 0.0 0.0 0.00 0.00 0.00 80 1022.2
20260902115631 25 267 0.0 0.0 0.00 0.00 0.00 79 1022.2
20260902115530 25 266 0.0 0.0 0.00 0.00 0.00 79 1022.2
20260902115427 25 267 0.0 0.0 0.00 0.00 0.00 79 1022.1
20260902115328 25 265 0.0 0.0 0.00 0.00 0.00 80 1022.2
20260902115225 25 265 0.0 0.0 0.00 0.00 0.00 80 1022.1
20260902115125 25 265 0.0 0.0 0.00 0.00 0.00 81 1022.1
20260902115022 25 263 0.0 0.0 0.00 0.00 0.00 80 1022.1
20260902114920 25 263 0.0 0.0 0.00 0.00 0.00 80 1022.1
20260902114822 25 263 0.0 0.0 0.00 0.00 0.00 79 1022.1
20260902114722 25 263 0.0 0.0 0.00 0.00 0.00 79 1022.1
20260902114620 25 263 0.0 0.0 0.00 0.00 0.00 79 1022.1
20260902114517 25 263 0.0 0.0 0.00 0.00 0.00 79 1022.1
20260902114417 25 263 0.0 0.0 0.00 0.00 0.00 78 1022.1
20260902114316 25 261 0.0 0.0 0.00 0.00 0.00 79 1022.1
20260902114215 25 261 0.0 0.0 0.00 0.00 0.00 79 1022.1
20260902114112 25 261 0.0 0.0 0.00 0.00 0.00 78 1022.0
20260902114012 25 261 0.0 0.0 0.00 0.00 0.00 78 1022.0
20260902113911 25 261 0.0 0.0 0.00 0.00 0.00 78 1022.0
20260902113810 25 262 0.0 0.0 0.00 0.00 0.00 78 1022.0
20260902113708 25 260 0.0 0.0 0.00 0.00 0.00 78 1022.0
20260902113608 25 261 0.0 0.0 0.00 0.00 0.00 78 1022.0
20260902113508 25 267 0.0 0.0 0.00 0.00 0.00 78 1022.0
20260902113407 25 227 0.0 0.0 0.00 0.00 0.00 78 1021.9
20260902113308 25 225 0.0 0.0 0.00 0.00 0.00 78 1021.9
20260902113206 25 229 0.0 0.0 0.00 0.00 0.00 78 1021.9
20260902113108 25 259 0.0 0.0 0.00 0.00 0.00 78 1022.0
20260902113008 25 265 0.0 0.0 0.00 0.00 0.00 78 1021.9
20260902112901 25 259 0.0 0.0 0.00 0.00 0.00 78 1021.7
20260902112802 25 244 0.0 0.0 0.00 0.00 0.00 78 1021.9
20260902112700 25 250 0.0 0.0 0.00 0.00 0.00 78 1021.7
20260902112601 25 258 0.0 0.0 0.00 0.00 0.00 78 1021.9
20260902112502 25 259 0.0 0.0 0.00 0.00 0.00 78 1021.9
20260902112354 25 258 0.0 0.0 0.00 0.00 0.00 78 1021.7
20260902112255 25 257 0.0 0.0 0.00 0.00 0.00 77 1021.7
20260902112155 25 271 0.0 0.0 0.00 0.00 0.00 78 1021.9
20260902112057 25 266 0.0 0.0 0.00 0.00 0.00 77 1021.6
20260902111956 25 271 0.0 0.0 0.00 0.00 0.00 78 1021.6
20260902111856 25 272 0.0 0.0 0.00 0.00 0.00 77 1021.7
20260902111752 25 273 0.0 0.0 0.00 0.00 0.00 77 1021.7
20260902111653 25 273 0.0 0.0 0.00 0.00 0.00 77 1021.6
20260902111552 25 272 0.0 0.0 0.00 0.00 0.00 77 1021.6
20260902111452 25 272 0.0 0.0 0.00 0.00 0.00 77 1021.6
20260902111351 25 272 0.0 0.0 0.00 0.00 0.00 77 1021.6
20260902111251 25 271 0.0 0.0 0.00 0.00 0.00 77 1021.6
20260902111149 25 281 0.0 0.0 0.00 0.00 0.00 77 1021.6
20260902111050 25 291 0.0 0.0 0.00 0.00 0.00 77 1021.6
20260902110949 25 293 0.0 0.0 0.00 0.00 0.00 77 1021.6
20260902110850 25 293 0.0 0.0 0.00 0.00 0.00 77 1021.6
20260902110749 25 292 0.0 0.0 0.00 0.00 0.00 77 1021.6
20260902110648 25 296 0.0 0.0 0.00 0.00 0.00 77 1021.6
20260902110548 25 296 0.0 0.0 0.00 0.00 0.00 77 1021.6
20260902110448 25 294 0.0 0.0 0.00 0.00 0.00 77 1021.6
20260902110346 25 294 0.0 0.0 0.00 0.00 0.00 77 1021.7
20260902110243 25 294 0.0 0.0 0.00 0.00 0.00 77 1021.6
20260902110143 25 293 0.0 0.0 0.00 0.00 0.00 77 1021.6
20260902110043 25 293 0.0 0.0 0.00 0.00 0.00 77 1021.7
20260902105944 25 294 0.0 0.0 0.00 0.00 0.00 77 1021.7
20260902105841 25 294 0.0 0.0 0.00 0.00 0.00 77 1021.7
20260902105740 25 294 0.0 0.0 0.00 0.00 0.00 77 1021.7
20260902105638 25 294 0.0 0.0 0.00 0.00 0.00 77 1021.6
20260902105538 25 293 0.0 0.0 0.00 0.00 0.00 77 1021.7
20260902105438 25 293 0.0 0.0 0.00 0.00 0.00 77 1021.6
20260902105335 25 293 0.0 0.0 0.00 0.00 0.00 77 1021.6
20260902105233 25 293 0.0 0.0 0.00 0.00 0.00 77 1021.6
20260902105134 25 293 0.0 0.0 0.00 0.00 0.00 77 1021.7
20260902105031 25 293 0.0 0.0 0.00 0.00 0.00 77 1021.7
20260902104929 25 293 0.0 0.0 0.00 0.00 0.00 77 1021.7
20260902104828 25 293 0.0 0.0 0.00 0.00 0.00 77 1021.7
20260902104728 25 293 0.0 0.0 0.00 0.00 0.00 77 1021.9
20260902104620 25 293 0.0 0.0 0.00 0.00 0.00 77 1021.7
20260902104521 25 293 0.0 0.0 0.00 0.00 0.00 77 1021.6
20260902104421 25 294 0.0 0.0 0.00 0.00 0.00 77 1021.9
20260902104319 25 294 0.0 0.0 0.00 0.00 0.00 77 1021.9
20260902104218 25 293 0.0 0.0 0.00 0.00 0.00 77 1021.7
20260902104114 25 294 0.0 0.0 0.00 0.00 0.00 77 1021.7
20260902104010 25 294 0.0 0.0 0.00 0.00 0.00 78 1021.9
20260902103912 25 294 0.0 0.0 0.00 0.00 0.00 78 1021.9
20260902103810 25 294 0.0 0.0 0.00 0.00 0.00 78 1021.7
20260902103712 25 294 0.0 0.0 0.00 0.00 0.00 78 1021.7
20260902103610 25 294 0.0 0.0 0.00 0.00 0.00 78 1021.7
20260902103510 25 294 0.0 0.0 0.00 0.00 0.00 78 1021.7
20260902103408 25 294 0.0 0.0 0.00 0.00 0.00 78 1021.7
20260902103308 25 294 0.0 0.0 0.00 0.00 0.00 78 1021.7
20260902103206 25 294 0.0 0.0 0.00 0.00 0.00 78 1021.9
20260902103101 25 293 0.0 0.0 0.00 0.00 0.00 78 1021.7
20260902103002 25 293 0.0 0.0 0.00 0.00 0.00 78 1021.7
20260902102901 25 293 0.0 0.0 0.00 0.00 0.00 78 1021.9
20260902102801 25 293 0.0 0.0 0.00 0.00 0.00 78 1021.9
20260902102701 25 293 0.0 0.0 0.00 0.00 0.00 79 1021.9
20260902102600 25 293 0.0 0.0 0.00 0.00 0.00 79 1021.7
20260902102456 25 293 0.0 0.0 0.00 0.00 0.00 79 1021.7
20260902102357 25 293 0.0 0.0 0.00 0.00 0.00 79 1021.7
20260902102255 25 293 0.0 0.0 0.00 0.00 0.00 79 1021.7
20260902102156 25 294 0.0 0.0 0.00 0.00 0.00 78 1022.0
20260902102054 25 294 0.0 0.0 0.00 0.00 0.00 79 1021.9
20260902101956 25 294 0.0 0.0 0.00 0.00 0.00 79 1021.9
20260902101855 25 294 0.0 0.0 0.00 0.00 0.00 79 1021.9
20260902101754 25 296 0.0 0.0 0.00 0.00 0.00 79 1021.6
20260902101650 25 296 0.0 0.0 0.00 0.00 0.00 79 1021.9
20260902101551 25 297 0.0 0.0 0.00 0.00 0.00 79 1021.7
20260902101450 25 297 0.0 0.0 0.00 0.00 0.00 79 1021.9
20260902101350 25 297 0.0 0.0 0.00 0.00 0.00 79 1021.7
20260902101247 25 298 0.0 0.0 0.00 0.00 0.00 79 1021.9
20260902101147 25 298 0.0 0.0 0.00 0.00 0.00 79 1021.9
20260902101045 25 298 0.0 0.0 0.00 0.00 0.00 79 1021.9
20260902100942 25 299 0.0 0.0 0.00 0.00 0.00 79 1021.7
20260902100841 25 300 0.0 0.0 0.00 0.00 0.00 79 1021.7
20260902100741 25 300 0.0 0.0 0.00 0.00 0.00 79 1021.7
20260902100642 25 301 0.0 0.0 0.00 0.00 0.00 79 1021.7
20260902100540 25 304 0.0 0.0 0.00 0.00 0.00 79 1021.7
20260902100438 25 304 0.0 0.0 0.00 0.00 0.00 79 1021.6
20260902100334 25 306 0.0 0.0 0.00 0.00 0.00 79 1021.6
20260902100235 25 304 0.0 0.0 0.00 0.00 0.00 79 1021.7
20260902100135 25 302 0.0 0.0 0.00 0.00 0.00 79 1021.7
20260902100035 25 304 0.0 0.0 0.00 0.00 0.00 79 1021.5
20260902095936 25 305 0.0 0.0 0.00 0.00 0.00 79 1021.5
20260902095836 25 304 0.0 0.0 0.00 0.00 0.00 79 1021.6
20260902095734 25 307 0.0 0.0 0.00 0.00 0.00 79 1021.6
20260902095632 25 307 0.0 0.0 0.00 0.00 0.00 79 1021.6
20260902095531 25 306 0.0 0.0 0.00 0.00 0.00 79 1021.6
20260902095430 25 307 0.0 0.0 0.00 0.00 0.00 79 1021.6
20260902095328 25 308 0.0 0.0 0.00 0.00 0.00 79 1021.6
20260902095226 25 306 0.0 0.0 0.00 0.00 0.00 79 1021.6
20260902095126 25 306 0.0 0.0 0.00 0.00 0.00 79 1021.5
20260902095025 25 304 0.0 0.0 0.00 0.00 0.00 79 1021.5
20260902094923 25 305 0.0 0.0 0.00 0.00 0.00 79 1021.5
20260902094821 25 304 0.0 0.0 0.00 0.00 0.00 79 1021.6
20260902094722 25 304 0.0 0.0 0.00 0.00 0.00 79 1021.5
20260902094619 25 302 0.0 0.0 0.00 0.00 0.00 79 1021.5
20260902094519 25 302 0.0 0.0 0.00 0.00 0.00 79 1021.4
20260902094420 25 301 0.0 0.0 0.00 0.00 0.00 79 1021.5
20260902094320 25 304 0.0 0.0 0.00 0.00 0.00 79 1021.6
20260902094220 25 306 0.0 0.0 0.00 0.00 0.00 79 1021.5
20260902094120 25 306 0.0 0.0 0.00 0.00 0.00 79 1021.5
20260902094019 25 306 0.0 0.0 0.00 0.00 0.00 79 1021.5
20260902093920 25 306 0.0 0.0 0.00 0.00 0.00 79 1021.6
20260902093818 25 306 0.0 0.0 0.00 0.00 0.00 79 1021.5
20260902093718 25 306 0.0 0.0 0.00 0.00 0.00 79 1021.6
20260902093617 25 306 0.0 0.0 0.00 0.00 0.00 79 1021.5
20260902093516 25 307 0.0 0.0 0.00 0.00 0.00 79 1021.6
20260902093414 25 309 0.0 0.0 0.00 0.00 0.00 79 1021.5
20260902093314 25 308 0.0 0.0 0.00 0.00 0.00 79 1021.5
20260902093211 25 304 0.0 0.0 0.00 0.00 0.00 79 1021.5
20260902093110 25 307 0.0 0.0 0.00 0.00 0.00 79 1021.5
20260902093009 25 306 0.0 0.0 0.00 0.00 0.00 79 1021.5
20260902092910 25 323 0.0 0.0 0.00 0.00 0.00 79 1021.5
20260902092808 25 303 0.0 0.0 0.00 0.00 0.00 79 1021.4
20260902092709 25 304 0.0 0.0 0.00 0.00 0.00 79 1021.4
20260902092603 25 306 0.0 0.0 0.00 0.00 0.00 79 1021.4
20260902092504 25 309 0.0 0.0 0.00 0.00 0.00 79 1021.5
20260902092403 25 296 0.0 0.0 0.00 0.00 0.00 79 1021.4
20260902092305 25 303 0.0 0.0 0.00 0.00 0.00 79 1021.5
20260902092203 25 311 0.0 0.0 0.00 0.00 0.00 78 1021.4
20260902092102 25 317 0.0 0.0 0.00 0.00 0.00 78 1021.4
20260902092005 25 311 0.0 0.0 0.00 0.00 0.00 78 1021.4
20260902091904 25 320 0.0 0.0 0.00 0.00 0.00 78 1021.4
20260902091802 25 319 0.0 0.0 0.00 0.00 0.00 78 1021.4
20260902091703 25 313 0.0 0.0 0.00 0.00 0.00 78 1021.5
20260902091604 25 326 0.0 0.0 0.00 0.00 0.00 78 1021.5
20260902091503 25 315 0.0 0.0 0.00 0.00 0.00 78 1021.4
20260902091403 25 317 0.0 0.0 0.00 0.00 0.00 78 1021.4
20260902091302 25 313 0.0 0.0 0.00 0.00 0.00 78 1021.5
20260902091202 25 305 0.0 0.0 0.00 0.00 0.00 78 1021.5
20260902091103 25 306 0.0 0.0 0.00 0.00 0.00 78 1021.4
20260902091003 25 319 0.0 0.0 0.00 0.00 0.00 78 1021.4
20260902090904 25 306 0.0 0.0 0.00 0.00 0.00 78 1021.4
20260902090804 25 302 0.0 0.0 0.00 0.00 0.00 78 1021.4
20260902090704 25 310 0.0 0.0 0.00 0.00 0.00 79 1021.4
20260902090602 25 294 0.0 0.0 0.00 0.00 0.00 79 1021.5
20260902090505 25 304 0.0 0.0 0.00 0.00 0.00 79 1021.4
20260902090402 25 298 0.0 0.0 0.00 0.00 0.00 79 1021.5
20260902090303 25 309 0.0 0.0 0.00 0.00 0.00 79 1021.4
20260902090203 25 284 0.0 0.0 0.00 0.00 0.00 79 1021.4
20260902090002 25 296 0.0 0.0 0.00 0.00 0.00 79 1021.4
20260902085902 25 312 0.0 0.0 0.00 0.00 0.00 79 1021.4
20260902085804 25 313 0.0 0.0 0.00 0.00 0.00 79 1021.5
20260902085659 25 313 0.0 0.0 0.00 0.00 0.00 79 1021.4
20260902085556 25 306 0.0 0.0 0.00 0.00 0.00 79 1021.4
20260902085458 25 315 0.0 0.0 0.00 0.00 0.00 79 1021.3
20260902085355 25 304 0.0 0.0 0.00 0.00 0.00 79 1021.4
20260902085256 25 301 0.0 0.0 0.00 0.00 0.00 79 1021.4
20260902085154 25 299 0.0 0.0 0.00 0.00 0.00 79 1021.4
20260902085052 25 302 0.0 0.0 0.00 0.00 0.00 79 1021.4
20260902084952 25 296 0.0 0.0 0.00 0.00 0.00 79 1021.4
20260902084850 25 300 0.0 0.0 0.00 0.00 0.00 79 1021.4
20260902084750 25 296 0.0 0.0 0.00 0.00 0.00 79 1021.4
20260902084645 25 296 0.0 0.0 0.00 0.00 0.00 79 1021.4
20260902084543 25 288 0.0 0.0 0.00 0.00 0.00 79 1021.4
20260902084443 25 288 0.0 0.0 0.00 0.00 0.00 79 1021.4
20260902084344 25 282 0.0 0.0 0.00 0.00 0.00 79 1021.5
20260902084240 25 281 0.0 0.0 0.00 0.00 0.00 79 1021.4
20260902084140 25 281 0.0 0.0 0.00 0.00 0.00 79 1021.4
20260902084040 25 281 0.0 0.0 0.00 0.00 0.00 79 1021.4
20260902083938 25 281 0.0 0.0 0.00 0.00 0.00 79 1021.4
20260902083837 25 284 0.0 0.0 0.00 0.00 0.00 79 1021.4
20260902083735 25 284 0.0 0.0 0.00 0.00 0.00 79 1021.4
20260902083635 25 285 0.0 0.0 0.00 0.00 0.00 79 1021.4
20260902083534 25 289 0.0 0.0 0.00 0.00 0.00 79 1021.4
20260902083432 25 290 0.0 0.0 0.00 0.00 0.00 79 1021.4
20260902083334 25 291 0.0 0.0 0.00 0.00 0.00 79 1021.4
20260902083233 25 290 0.0 0.0 0.00 0.00 0.00 79 1021.5
20260902083132 25 296 0.0 0.0 0.00 0.00 0.00 79 1021.4
20260902083031 25 294 0.0 0.0 0.00 0.00 0.00 79 1021.5
20260902082932 25 289 0.0 0.0 0.00 0.00 0.00 79 1021.4
20260902082831 25 292 0.0 0.0 0.00 0.00 0.00 79 1021.4
20260902082729 25 291 0.0 0.0 0.00 0.00 0.00 79 1021.4
20260902082629 25 292 0.0 0.0 0.00 0.00 0.00 79 1021.4
20260902082527 25 292 0.0 0.0 0.00 0.00 0.00 79 1021.4
20260902082423 25 294 0.0 0.0 0.00 0.00 0.00 79 1021.4
20260902082324 25 294 0.0 0.0 0.00 0.00 0.00 79 1021.4
20260902082222 25 292 0.0 0.0 0.00 0.00 0.00 79 1021.4
20260902082122 25 285 0.0 0.0 0.00 0.00 0.00 79 1021.4
20260902082024 25 284 0.0 0.0 0.00 0.00 0.00 78 1021.4
20260902081921 25 286 0.0 0.0 0.00 0.00 0.00 78 1021.4
20260902081821 25 275 0.0 0.0 0.00 0.00 0.00 78 1021.4
20260902081721 25 292 0.0 0.0 0.00 0.00 0.00 78 1021.4
20260902081621 25 301 0.0 0.0 0.00 0.00 0.00 78 1021.3
20260902081522 25 301 0.0 0.0 0.00 0.00 0.00 78 1021.3
20260902081420 25 283 0.0 0.0 0.00 0.00 0.00 78 1021.4
20260902081321 25 286 0.0 0.0 0.00 0.00 0.00 78 1021.4
20260902081213 25 281 0.0 0.0 0.00 0.00 0.00 78 1021.3
20260902081112 25 279 0.0 0.0 0.00 0.00 0.00 78 1021.5
20260902081012 25 292 0.0 0.0 0.00 0.00 0.00 78 1021.5
20260902080912 25 293 0.0 0.0 0.00 0.00 0.00 77 1021.4
20260902080813 25 290 0.0 0.0 0.00 0.00 0.00 78 1021.4
20260902080714 25 309 0.0 0.0 0.00 0.00 0.00 77 1021.4
20260902080612 25 292 0.0 0.0 0.00 0.00 0.00 77 1021.4
20260902080514 25 306 0.0 0.0 0.00 0.00 0.00 78 1021.4
20260902080412 25 325 0.0 0.0 0.00 0.00 0.00 77 1021.4
20260902080314 25 291 0.0 0.0 0.00 0.00 0.00 77 1021.4
20260902080214 25 294 0.0 0.0 0.00 0.00 0.00 77 1021.3
20260902080112 25 296 0.0 0.0 0.00 0.00 0.00 77 1021.4
20260902080013 25 298 0.0 0.0 0.00 0.00 0.00 77 1021.4
20260902075913 25 303 0.0 0.0 0.00 0.00 0.00 77 1021.4
20260902075812 25 302 0.0 0.0 0.00 0.00 0.00 77 1021.4
20260902075714 25 305 0.0 0.0 0.00 0.00 0.00 77 1021.4
20260902075612 25 296 0.0 0.0 0.00 0.00 0.00 77 1021.4
20260902075514 25 295 0.0 0.0 0.00 0.00 0.00 77 1021.3
20260902075412 25 295 0.0 0.0 0.00 0.00 0.00 77 1021.3
20260902075314 25 294 0.0 0.0 0.00 0.00 0.00 77 1021.3
20260902075212 25 294 0.0 0.0 0.00 0.00 0.00 77 1021.3
20260902075113 25 294 0.0 0.0 0.00 0.00 0.00 77 1021.3
20260902075013 25 294 0.0 0.0 0.00 0.00 0.00 77 1021.3
20260902074912 25 284 0.0 0.0 0.00 0.00 0.00 77 1021.2
20260902074813 25 284 0.0 0.0 0.00 0.00 0.00 77 1021.3
20260902074714 25 284 0.0 0.0 0.00 0.00 0.00 77 1021.2
20260902074613 25 284 0.0 0.0 0.00 0.00 0.00 77 1021.3
20260902074512 25 284 0.0 0.0 0.00 0.00 0.00 77 1021.2
20260902074413 25 284 0.0 0.0 0.00 0.00 0.00 77 1021.4
20260902074313 25 284 0.0 0.0 0.00 0.00 0.00 77 1021.3
20260902074213 25 284 0.0 0.0 0.00 0.00 0.00 77 1021.2
20260902074113 25 283 0.0 0.0 0.00 0.00 0.00 77 1021.3
20260902074013 25 283 0.0 0.0 0.00 0.00 0.00 77 1021.3
20260902073908 25 283 0.0 0.0 0.00 0.00 0.00 77 1021.2
20260902073810 25 282 0.0 0.0 0.00 0.00 0.00 77 1021.3
20260902073709 25 271 0.0 0.0 0.00 0.00 0.00 77 1021.3
20260902073609 25 271 0.0 0.0 0.00 0.00 0.00 77 1021.3
20260902073509 25 271 0.0 0.0 0.00 0.00 0.00 77 1021.3
20260902073408 25 271 0.0 0.0 0.00 0.00 0.00 77 1021.3
20260902073310 25 271 0.0 0.0 0.00 0.00 0.00 77 1021.3
20260902073209 25 271 0.0 0.0 0.00 0.00 0.00 77 1021.3
20260902073109 25 268 0.0 0.0 0.00 0.00 0.00 77 1021.3
20260902073010 25 268 0.0 0.0 0.00 0.00 0.00 77 1021.3
20260902072910 25 268 0.0 0.0 0.00 0.00 0.00 77 1021.2
20260902072808 25 268 0.0 0.0 0.00 0.00 0.00 77 1021.3
20260902072708 25 268 0.0 0.0 0.00 0.00 0.00 77 1021.3
20260902072610 25 268 0.0 0.0 0.00 0.00 0.00 77 1021.2
20260902072510 25 268 0.0 0.0 0.00 0.00 0.00 77 1021.2
20260902072410 25 268 0.0 0.0 0.00 0.00 0.00 77 1021.3
20260902072310 25 268 0.0 0.0 0.00 0.00 0.00 77 1021.2
20260902072210 25 268 0.0 0.0 0.00 0.00 0.00 77 1021.3
20260902072108 25 268 0.0 0.0 0.00 0.00 0.00 77 1021.3
20260902072010 25 268 0.0 0.0 0.00 0.00 0.00 77 1021.2
20260902071909 25 268 0.0 0.0 0.00 0.00 0.00 77 1021.2
20260902071808 25 268 0.0 0.0 0.00 0.00 0.00 77 1021.3
20260902071708 25 268 0.0 0.0 0.00 0.00 0.00 77 1021.2
20260902071610 25 267 0.0 0.0 0.00 0.00 0.00 77 1021.3
20260902071508 25 267 0.0 0.0 0.00 0.00 0.00 78 1021.3
20260902071409 25 267 0.0 0.0 0.00 0.00 0.00 78 1021.2
20260902071308 25 267 0.0 0.0 0.00 0.00 0.00 78 1021.2
20260902071210 25 267 0.0 0.0 0.00 0.00 0.00 78 1021.3
20260902071109 25 267 0.0 0.0 0.00 0.00 0.00 78 1021.2
20260902071010 25 267 0.0 0.0 0.00 0.00 0.00 78 1021.3
20260902070909 25 267 0.0 0.0 0.00 0.00 0.00 78 1021.3
20260902070808 25 267 0.0 0.0 0.00 0.00 0.00 78 1021.2
20260902070709 25 267 0.0 0.0 0.00 0.00 0.00 78 1021.3
20260902070604 25 267 0.0 0.0 0.00 0.00 0.00 78 1021.2
20260902070505 25 267 0.0 0.0 0.00 0.00 0.00 78 1021.2
20260902070405 25 267 0.0 0.0 0.00 0.00 0.00 78 1021.2
20260902070305 25 267 0.0 0.0 0.00 0.00 0.00 78 1021.2
20260902070204 25 267 0.0 0.0 0.00 0.00 0.00 78 1021.2
20260902070105 25 267 0.0 0.0 0.00 0.00 0.00 78 1021.2
20260902070007 25 267 0.0 0.0 0.00 0.00 0.00 78 1021.2
20260902065904 25 267 0.0 0.0 0.00 0.00 0.00 78 1021.2
20260902065804 25 267 0.0 0.0 0.00 0.00 0.00 78 1021.2
20260902065705 25 267 0.0 0.0 0.00 0.00 0.00 78 1021.1
20260902065604 25 267 0.0 0.0 0.00 0.00 0.00 78 1021.2
20260902065504 25 267 0.0 0.0 0.00 0.00 0.00 79 1021.2
20260902065404 25 267 0.0 0.0 0.00 0.00 0.00 79 1021.2
20260902065306 25 267 0.0 0.0 0.00 0.00 0.00 79 1021.1
20260902065204 25 267 0.0 0.0 0.00 0.00 0.00 79 1021.1
20260902065104 25 267 0.0 0.0 0.00 0.00 0.00 79 1021.1
20260902065005 25 267 0.0 0.0 0.00 0.00 0.00 79 1021.2
20260902064904 25 267 0.0 0.0 0.00 0.00 0.00 79 1021.1
20260902064805 25 267 0.0 0.0 0.00 0.00 0.00 79 1021.2
20260902064705 25 267 0.0 0.0 0.00 0.00 0.00 79 1021.2
20260902064604 25 267 0.0 0.0 0.00 0.00 0.00 79 1021.2
20260902064506 25 267 0.0 0.0 0.00 0.00 0.00 79 1021.1
20260902064404 25 267 0.0 0.0 0.00 0.00 0.00 79 1021.1
20260902064304 25 267 0.0 0.0 0.00 0.00 0.00 79 1021.2
20260902064204 25 267 0.0 0.0 0.00 0.00 0.00 79 1021.2
20260902064106 25 267 0.0 0.0 0.00 0.00 0.00 79 1021.1
20260902064005 25 267 0.0 0.0 0.00 0.00 0.00 79 1021.1
20260902063905 25 267 0.0 0.0 0.00 0.00 0.00 79 1021.1
20260902063806 25 267 0.0 0.0 0.00 0.00 0.00 79 1021.1
20260902063704 25 267 0.0 0.0 0.00 0.00 0.00 79 1021.1
20260902063604 25 267 0.0 0.0 0.00 0.00 0.00 79 1021.2
20260902063505 25 267 0.0 0.0 0.00 0.00 0.00 79 1021.1
20260902063406 25 267 0.0 0.0 0.00 0.00 0.00 79 1021.1
20260902063259 25 267 0.0 0.0 0.00 0.00 0.00 79 1021.1
20260902063202 25 267 0.0 0.0 0.00 0.00 0.00 79 1021.2
20260902063100 25 267 0.0 0.0 0.00 0.00 0.00 79 1021.1
20260902063001 25 267 0.0 0.0 0.00 0.00 0.00 79 1021.2
20260902062902 25 267 0.0 0.0 0.00 0.00 0.00 79 1021.1
20260902062802 25 267 0.0 0.0 0.00 0.00 0.00 79 1021.1
20260902062700 25 267 0.0 0.0 0.00 0.00 0.00 79 1021.2
20260902062602 25 267 0.0 0.0 0.00 0.00 0.00 79 1021.1
20260902062500 25 267 0.0 0.0 0.00 0.00 0.00 79 1021.2
20260902062401 25 267 0.0 0.0 0.00 0.00 0.00 79 1021.1
20260902062301 25 267 0.0 0.0 0.00 0.00 0.00 79 1021.2
20260902062202 25 267 0.0 0.0 0.00 0.00 0.00 79 1021.1
20260902062101 25 267 0.0 0.0 0.00 0.00 0.00 79 1021.2
20260902062002 25 267 0.0 0.0 0.00 0.00 0.00 79 1021.1
20260902061901 25 267 0.0 0.0 0.00 0.00 0.00 79 1021.2
20260902061802 25 267 0.0 0.0 0.00 0.00 0.00 79 1021.2
20260902061700 25 267 0.0 0.0 0.00 0.00 0.00 79 1021.2
20260902061602 25 267 0.0 0.0 0.00 0.00 0.00 79 1021.2
20260902061500 25 267 0.0 0.0 0.00 0.00 0.00 79 1021.1
20260902061401 25 267 0.0 0.0 0.00 0.00 0.00 79 1021.2
20260902061300 25 267 0.0 0.0 0.00 0.00 0.00 79 1021.2
20260902061201 25 267 0.0 0.0 0.00 0.00 0.00 79 1021.3
20260902061100 25 267 0.0 0.0 0.00 0.00 0.00 79 1021.2
20260902061000 25 267 0.0 0.0 0.00 0.00 0.00 79 1021.3
20260902060900 25 267 0.0 0.0 0.00 0.00 0.00 79 1021.3
20260902060802 25 267 0.0 0.0 0.00 0.00 0.00 79 1021.3
20260902060654 25 267 0.0 0.0 0.00 0.00 0.00 79 1021.3
20260902060556 25 267 0.0 0.0 0.00 0.00 0.00 79 1021.3
20260902060454 25 267 0.0 0.0 0.00 0.00 0.00 79 1021.2
20260902060352 25 267 0.0 0.0 0.00 0.00 0.00 79 1021.2
20260902060250 25 267 0.0 0.0 0.00 0.00 0.00 79 1021.3
20260902060148 25 267 0.0 0.0 0.00 0.00 0.00 79 1021.2
20260902060047 25 266 0.0 0.0 0.00 0.00 0.00 79 1021.3
20260902055946 25 267 0.0 0.0 0.00 0.00 0.00 79 1021.3
20260902055846 25 267 0.0 0.0 0.00 0.00 0.00 79 1021.3
20260902055743 25 266 0.0 0.0 0.00 0.00 0.00 79 1021.3
20260902055641 25 266 0.0 0.0 0.00 0.00 0.00 79 1021.3
20260902055540 25 267 0.0 0.0 0.00 0.00 0.00 79 1021.3
20260902055440 25 266 0.0 0.0 0.00 0.00 0.00 79 1021.3
20260902055340 25 266 0.0 0.0 0.00 0.00 0.00 79 1021.3
20260902055237 25 267 0.0 0.0 0.00 0.00 0.00 79 1021.3
20260902055128 25 267 0.0 0.0 0.00 0.00 0.00 79 1021.2
20260902055027 25 267 0.0 0.0 0.00 0.00 0.00 79 1021.3
20260902054928 25 267 0.0 0.0 0.00 0.00 0.00 79 1021.3
20260902054826 25 267 0.0 0.0 0.00 0.00 0.00 78 1021.3
20260902054727 25 267 0.0 0.0 0.00 0.00 0.00 79 1021.2
20260902054628 25 302 0.0 0.0 0.00 0.00 0.00 79 1021.3
20260902054525 25 302 0.0 0.0 0.00 0.00 0.00 79 1021.2
20260902054426 25 305 0.0 0.0 0.00 0.00 0.00 79 1021.2
20260902054323 25 305 0.0 0.0 0.00 0.00 0.00 79 1021.2
20260902054220 25 306 0.0 0.0 0.00 0.00 0.00 79 1021.2
20260902054120 25 305 0.0 0.0 0.00 0.00 0.00 79 1021.2
20260902054020 25 305 0.0 0.0 0.00 0.00 0.00 78 1021.2
20260902053916 25 306 0.0 0.0 0.00 0.00 0.00 78 1021.2
20260902053817 25 306 0.0 0.0 0.00 0.00 0.00 78 1021.2
20260902053714 25 306 0.0 0.0 0.00 0.00 0.00 79 1021.2
20260902053604 25 306 0.0 0.0 0.00 0.00 0.00 78 1021.2
20260902053506 25 306 0.0 0.0 0.00 0.00 0.00 78 1021.2
20260902053405 25 306 0.0 0.0 0.00 0.00 0.00 78 1021.2
20260902053306 25 306 0.0 0.0 0.00 0.00 0.00 78 1021.2
20260902053204 25 306 0.0 0.0 0.00 0.00 0.00 78 1021.2
20260902053100 25 306 0.0 0.0 0.00 0.00 0.00 78 1021.1
20260902052958 25 306 0.0 0.0 0.00 0.00 0.00 78 1021.2
20260902052859 25 306 0.0 0.0 0.00 0.00 0.00 78 1021.2
20260902052758 25 306 0.0 0.0 0.00 0.00 0.00 78 1021.2
20260902052659 25 306 0.0 0.0 0.00 0.00 0.00 78 1021.2
20260902052558 25 306 0.0 0.0 0.00 0.00 0.00 78 1021.1
20260902052458 25 306 0.0 0.0 0.00 0.00 0.00 78 1021.2
20260902052355 25 306 0.0 0.0 0.00 0.00 0.00 78 1021.2
20260902052256 25 306 0.0 0.0 0.00 0.00 0.00 78 1021.3
20260902052152 25 306 0.0 0.0 0.00 0.00 0.00 78 1021.2
20260902052048 25 306 0.0 0.0 0.00 0.00 0.00 78 1021.2
20260902051947 25 306 0.0 0.0 0.00 0.00 0.00 78 1021.1
20260902051846 25 306 0.0 0.0 0.00 0.00 0.00 78 1021.2
20260902051744 25 306 0.0 0.0 0.00 0.00 0.00 78 1021.1
20260902051644 25 306 0.0 0.0 0.00 0.00 0.00 78 1021.2
20260902051545 25 306 0.0 0.0 0.00 0.00 0.00 78 1021.2
20260902051444 25 306 0.0 0.0 0.00 0.00 0.00 78 1021.2
20260902051344 25 306 0.0 0.0 0.00 0.00 0.00 78 1021.2
20260902051242 25 307 0.0 0.0 0.00 0.00 0.00 78 1021.1
20260902051143 25 307 0.0 0.0 0.00 0.00 0.00 78 1021.2
20260902051040 25 307 0.0 0.0 0.00 0.00 0.00 78 1021.2
20260902050939 25 307 0.0 0.0 0.00 0.00 0.00 77 1021.1
20260902050836 25 307 0.0 0.0 0.00 0.00 0.00 78 1021.2
20260902050736 25 305 0.0 0.0 0.00 0.00 0.00 78 1021.2
20260902050637 25 283 0.0 0.0 0.00 0.00 0.00 78 1021.1
20260902050538 25 283 0.0 0.0 0.00 0.00 0.00 77 1021.1
20260902050437 25 282 0.0 0.0 0.00 0.00 0.00 77 1021.1
20260902050335 25 283 0.0 0.0 0.00 0.00 0.00 78 1021.1
20260902050234 25 283 0.0 0.0 0.00 0.00 0.00 77 1021.2
20260902050135 25 284 0.0 0.0 0.00 0.00 0.00 77 1021.1
20260902050033 25 284 0.0 0.0 0.00 0.00 0.00 77 1021.2
20260902045931 25 284 0.0 0.0 0.00 0.00 0.00 77 1021.2
20260902045830 25 284 0.0 0.0 0.00 0.00 0.00 77 1021.2
20260902045729 25 284 0.0 0.0 0.00 0.00 0.00 77 1021.1
20260902045627 25 284 0.0 0.0 0.00 0.00 0.00 77 1021.2
20260902045526 25 284 0.0 0.0 0.00 0.00 0.00 77 1021.1
20260902045425 25 284 0.0 0.0 0.00 0.00 0.00 77 1021.1
20260902045323 26 284 0.0 0.0 0.00 0.00 0.00 77 1021.1
20260902045224 26 284 0.0 0.0 0.00 0.00 0.00 77 1021.1
20260902045123 26 284 0.0 0.0 0.00 0.00 0.00 77 1021.1
20260902045022 26 284 0.0 0.0 0.00 0.00 0.00 77 1021.1
20260902044921 26 284 0.0 0.0 0.00 0.00 0.00 77 1021.1
20260902044820 26 284 0.0 0.0 0.00 0.00 0.00 77 1021.2
20260902044720 26 284 0.0 0.0 0.00 0.00 0.00 77 1021.1
20260902044617 26 283 0.0 0.0 0.00 0.00 0.00 77 1021.2
20260902044518 26 282 0.0 0.0 0.00 0.00 0.00 77 1021.2
20260902044415 26 282 0.0 0.0 0.00 0.00 0.00 77 1021.2
20260902044315 26 282 0.0 0.0 0.00 0.00 0.00 77 1021.1
20260902044213 26 282 0.0 0.0 0.00 0.00 0.00 77 1021.2
20260902044112 26 274 0.0 0.0 0.00 0.00 0.00 77 1021.2
20260902044012 26 273 0.0 0.0 0.00 0.00 0.00 77 1021.2
20260902043909 26 272 0.0 0.0 0.00 0.00 0.00 77 1021.2
20260902043803 26 272 0.0 0.0 0.00 0.00 0.00 77 1021.1
20260902043702 26 270 0.0 0.0 0.00 0.00 0.00 77 1021.2
20260902043602 26 270 0.0 0.0 0.00 0.00 0.00 77 1021.2
20260902043502 26 270 0.0 0.0 0.00 0.00 0.00 77 1021.1
20260902043358 26 270 0.0 0.0 0.00 0.00 0.00 77 1021.1
20260902043254 26 269 0.0 0.0 0.00 0.00 0.00 77 1021.1
20260902043154 26 269 0.0 0.0 0.00 0.00 0.00 77 1021.1
20260902043053 26 269 0.0 0.0 0.00 0.00 0.00 77 1021.2
20260902042952 26 269 0.0 0.0 0.00 0.00 0.00 76 1021.2
20260902042852 26 269 0.0 0.0 0.00 0.00 0.00 76 1021.1
20260902042748 26 269 0.0 0.0 0.00 0.00 0.00 76 1021.1
20260902042648 26 269 0.0 0.0 0.00 0.00 0.00 76 1021.1
20260902042546 26 269 0.0 0.0 0.00 0.00 0.00 76 1021.2
20260902042447 26 270 0.0 0.0 0.00 0.00 0.00 76 1021.2
20260902042347 26 269 0.0 0.0 0.00 0.00 0.00 76 1021.2
20260902042242 26 269 0.0 0.0 0.00 0.00 0.00 76 1021.2
20260902042141 26 269 0.0 0.0 0.00 0.00 0.00 76 1021.2
20260902042038 26 269 0.0 0.0 0.00 0.00 0.00 76 1021.2
20260902041939 26 269 0.0 0.0 0.00 0.00 0.00 76 1021.2
20260902041837 26 269 0.0 0.0 0.00 0.00 0.00 76 1021.2
20260902041736 26 269 0.0 0.0 0.00 0.00 0.00 76 1021.1
20260902041635 26 270 0.0 0.0 0.00 0.00 0.00 76 1021.3
20260902041535 26 270 0.0 0.0 0.00 0.00 0.00 76 1021.2
20260902041434 26 270 0.0 0.0 0.00 0.00 0.00 76 1021.3
20260902041331 26 270 0.0 0.0 0.00 0.00 0.00 76 1021.2
20260902041231 26 279 0.0 0.0 0.00 0.00 0.00 76 1021.2
20260902041128 26 276 0.0 0.0 0.00 0.00 0.00 76 1021.2
20260902041029 26 283 0.0 0.0 0.00 0.00 0.00 76 1021.2
20260902040927 26 283 0.0 0.0 0.00 0.00 0.00 76 1021.2
20260902040825 26 283 0.0 0.0 0.00 0.00 0.00 76 1021.2
20260902040726 26 283 0.0 0.0 0.00 0.00 0.00 76 1021.1
20260902040628 26 286 0.0 0.0 0.00 0.00 0.00 76 1021.1
20260902040526 26 286 0.0 0.0 0.00 0.00 0.00 76 1021.1
20260902040425 26 288 0.0 0.0 0.00 0.00 0.00 76 1021.1
20260902040322 26 288 0.0 0.0 0.00 0.00 0.00 76 1021.1
20260902040222 26 292 0.0 0.0 0.00 0.00 0.00 76 1021.2
20260902040123 26 291 0.0 0.0 0.00 0.00 0.00 76 1021.2
20260902040022 26 287 0.0 0.0 0.00 0.00 0.00 76 1021.2
20260902035920 26 288 0.0 0.0 0.00 0.00 0.00 76 1021.2
20260902035822 26 282 0.0 0.0 0.00 0.00 0.00 76 1021.2
20260902035721 26 282 0.0 0.0 0.00 0.00 0.00 76 1021.2
20260902035622 26 282 0.0 0.0 0.00 0.00 0.00 76 1021.2
20260902035521 26 282 0.0 0.0 0.00 0.00 0.00 76 1021.2
20260902035421 26 281 0.0 0.0 0.00 0.00 0.00 76 1021.3
20260902035320 26 281 0.0 0.0 0.00 0.00 0.00 76 1021.3
20260902035222 26 281 0.0 0.0 0.00 0.00 0.00 76 1021.3
20260902035120 26 281 0.0 0.0 0.00 0.00 0.00 76 1021.3
20260902035021 26 277 0.0 0.0 0.00 0.00 0.00 76 1021.3
20260902034922 26 276 0.0 0.0 0.00 0.00 0.00 76 1021.4
20260902034816 26 275 0.0 0.0 0.00 0.00 0.00 76 1021.2
20260902034716 26 273 0.0 0.0 0.00 0.00 0.00 76 1021.3
20260902034617 26 271 0.0 0.0 0.00 0.00 0.00 76 1021.4
20260902034516 26 271 0.0 0.0 0.00 0.00 0.00 76 1021.3
20260902034417 26 271 0.0 0.0 0.00 0.00 0.00 76 1021.2
20260902034316 26 271 0.0 0.0 0.00 0.00 0.00 76 1021.3
20260902034216 26 271 0.0 0.0 0.00 0.00 0.00 76 1021.2
20260902034117 26 269 0.0 0.0 0.00 0.00 0.00 76 1021.2
20260902034016 26 279 0.0 0.0 0.00 0.00 0.00 76 1021.2
20260902033916 26 270 0.0 0.0 0.00 0.00 0.00 76 1021.3
20260902033816 26 269 0.0 0.0 0.00 0.00 0.00 76 1021.1
20260902033716 26 269 0.0 0.0 0.00 0.00 0.00 76 1021.2
20260902033616 26 269 0.0 0.0 0.00 0.00 0.00 76 1021.2
20260902033518 26 270 0.0 0.0 0.00 0.00 0.00 76 1021.2
20260902033417 26 270 0.0 0.0 0.00 0.00 0.00 76 1021.1
20260902033318 26 270 0.0 0.0 0.00 0.00 0.00 76 1021.2
20260902033217 26 270 0.0 0.0 0.00 0.00 0.00 76 1021.2
20260902033114 26 271 0.0 0.0 0.00 0.00 0.00 76 1021.2
20260902033017 26 271 0.0 0.0 0.00 0.00 0.00 76 1021.1
20260902032915 26 271 0.0 0.0 0.00 0.00 0.00 76 1021.1
20260902032814 26 277 0.0 0.0 0.00 0.00 0.00 76 1021.3
20260902032708 26 277 0.0 0.0 0.00 0.00 0.00 76 1021.3
20260902032609 26 277 0.0 0.0 0.00 0.00 0.00 76 1021.2
20260902032509 26 259 0.0 0.0 0.00 0.00 0.00 76 1021.3
20260902032403 26 255 0.0 0.0 0.00 0.00 0.00 76 1021.3
20260902032305 26 269 0.0 0.0 0.00 0.00 0.00 76 1021.3
20260902032202 26 269 0.0 0.0 0.00 0.00 0.00 76 1021.3
20260902032102 26 269 0.0 0.0 0.00 0.00 0.00 76 1021.2
20260902032004 26 267 0.0 0.0 0.00 0.00 0.00 76 1021.2
20260902031858 26 267 0.0 0.0 0.00 0.00 0.00 76 1021.2
20260902031756 26 266 0.0 0.0 0.00 0.00 0.00 76 1021.2
20260902031657 26 267 0.0 0.0 0.00 0.00 0.00 76 1021.3
20260902031555 26 266 0.0 0.0 0.00 0.00 0.00 77 1021.2
20260902031453 26 267 0.0 0.0 0.00 0.00 0.00 77 1021.2
20260902031348 26 267 0.0 0.0 0.00 0.00 0.00 77 1021.2
20260902031247 26 267 0.0 0.0 0.00 0.00 0.00 77 1021.2
20260902031146 26 267 0.0 0.0 0.00 0.00 0.00 77 1021.2
20260902031047 26 268 0.0 0.0 0.00 0.00 0.00 76 1021.3
20260902030944 26 265 0.0 0.0 0.00 0.00 0.00 77 1021.3
20260902030845 26 264 0.0 0.0 0.00 0.00 0.00 77 1021.4
20260902030742 26 254 0.0 0.0 0.00 0.00 0.00 77 1021.4
20260902030644 26 254 0.0 0.0 0.00 0.00 0.00 77 1021.3
20260902030542 26 254 0.0 0.0 0.00 0.00 0.00 77 1021.4
20260902030439 26 254 0.0 0.0 0.00 0.00 0.00 77 1021.3
20260902030328 26 252 0.0 0.0 0.00 0.00 0.00 77 1021.3
20260902030229 26 252 0.0 0.0 0.00 0.00 0.00 77 1021.4
20260902030129 26 252 0.0 0.0 0.00 0.00 0.00 78 1021.5
20260902030029 26 226 0.0 0.0 0.00 0.00 0.00 77 1021.4
20260902025929 26 226 0.0 0.0 0.00 0.00 0.00 77 1021.4
20260902025827 26 225 0.0 0.0 0.00 0.00 0.00 77 1021.4
20260902025726 26 227 0.0 0.0 0.00 0.00 0.00 78 1021.4
20260902025626 26 281 0.0 0.0 0.00 0.00 0.00 77 1021.4
20260902025525 26 281 0.0 0.0 0.00 0.00 0.00 77 1021.4
20260902025423 26 281 0.0 0.0 0.00 0.00 0.00 77 1021.4
20260902025323 26 281 0.0 0.0 0.00 0.00 0.00 77 1021.3
20260902025220 26 269 0.0 0.0 0.00 0.00 0.00 77 1021.4
20260902025121 26 268 0.0 0.0 0.00 0.00 0.00 77 1021.4
20260902025018 26 268 0.0 0.0 0.00 0.00 0.00 77 1021.4
20260902024917 26 268 0.0 0.0 0.00 0.00 0.00 77 1021.4
20260902024807 26 268 0.0 0.0 0.00 0.00 0.00 77 1021.4
20260902024707 26 268 0.0 0.0 0.00 0.00 0.00 77 1021.4
20260902024607 26 268 0.0 0.0 0.00 0.00 0.00 77 1021.4
20260902024504 26 267 0.0 0.0 0.00 0.00 0.00 77 1021.4
20260902024405 26 259 0.0 0.0 0.00 0.00 0.00 77 1021.3
20260902024302 26 259 0.0 0.0 0.00 0.00 0.00 77 1021.3
20260902024204 26 259 0.0 0.0 0.00 0.00 0.00 77 1021.3
20260902024102 26 259 0.0 0.0 0.00 0.00 0.00 77 1021.2
20260902024001 26 259 0.0 0.0 0.00 0.00 0.00 77 1021.3
20260902023858 26 259 0.0 0.0 0.00 0.00 0.00 77 1021.3
20260902023757 26 259 0.0 0.0 0.00 0.00 0.00 77 1021.2
20260902023656 26 257 0.0 0.0 0.00 0.00 0.00 77 1021.2
20260902023555 26 257 0.0 0.0 0.00 0.00 0.00 77 1021.2
20260902023453 26 257 0.0 0.0 0.00 0.00 0.00 77 1021.3
20260902023351 26 256 0.0 0.0 0.00 0.00 0.00 77 1021.3
20260902023243 26 256 0.0 0.0 0.00 0.00 0.00 77 1021.3
20260902023140 26 252 0.0 0.0 0.00 0.00 0.00 77 1021.2
20260902023041 26 252 0.0 0.0 0.00 0.00 0.00 78 1021.3
20260902022940 26 253 0.0 0.0 0.00 0.00 0.00 78 1021.2
20260902022841 26 253 0.0 0.0 0.00 0.00 0.00 78 1021.2
20260902022738 26 253 0.0 0.0 0.00 0.00 0.00 77 1021.2
20260902022639 26 253 0.0 0.0 0.00 0.00 0.00 77 1021.2
20260902022539 26 253 0.0 0.0 0.00 0.00 0.00 78 1021.3
20260902022437 26 252 0.0 0.0 0.00 0.00 0.00 78 1021.2
20260902022335 26 252 0.0 0.0 0.00 0.00 0.00 78 1021.2
20260902022235 26 252 0.0 0.0 0.00 0.00 0.00 78 1021.2
20260902022132 26 252 0.0 0.0 0.00 0.00 0.00 77 1021.1
20260902022032 26 252 0.0 0.0 0.00 0.00 0.00 78 1021.1
20260902021931 26 252 0.0 0.0 0.00 0.00 0.00 78 1021.2
20260902021828 26 252 0.0 0.0 0.00 0.00 0.00 78 1021.1
20260902021719 26 253 0.0 0.0 0.00 0.00 0.00 77 1021.1
20260902021619 26 252 0.0 0.0 0.00 0.00 0.00 77 1021.1
20260902021518 26 253 0.0 0.0 0.00 0.00 0.00 77 1021.1
20260902021418 26 253 0.0 0.0 0.00 0.00 0.00 78 1021.1
20260902021319 26 253 0.0 0.0 0.00 0.00 0.00 77 1021.1
20260902021219 26 253 0.0 0.0 0.00 0.00 0.00 77 1021.2
20260902021117 26 252 0.0 0.0 0.00 0.00 0.00 77 1021.0
20260902021016 26 251 0.0 0.0 0.00 0.00 0.00 77 1021.0
20260902020915 26 248 0.0 0.0 0.00 0.00 0.00 77 1021.1
20260902020813 26 249 0.0 0.0 0.00 0.00 0.00 77 1021.0
20260902020706 26 249 0.0 0.0 0.00 0.00 0.00 77 1021.0
20260902020607 26 249 0.0 0.0 0.00 0.00 0.00 77 1021.0
20260902020506 26 249 0.0 0.0 0.00 0.00 0.00 77 1021.0
20260902020406 26 249 0.0 0.0 0.00 0.00 0.00 77 1021.0
20260902020306 26 249 0.0 0.0 0.00 0.00 0.00 76 1021.1
20260902020156 26 249 0.0 0.0 0.00 0.00 0.00 76 1021.0
20260902020057 26 249 0.0 0.0 0.00 0.00 0.00 76 1021.0
20260902015956 26 301 0.0 0.0 0.00 0.00 0.00 76 1021.0
20260902015856 26 301 0.0 0.0 0.00 0.00 0.00 76 1021.0
20260902015755 26 301 0.0 0.0 0.00 0.00 0.00 76 1021.0
20260902015650 26 306 0.0 0.0 0.00 0.00 0.00 75 1021.0
20260902015550 26 318 0.0 0.0 0.00 0.00 0.00 75 1020.9
20260902015448 26 329 0.0 0.0 0.00 0.00 0.00 75 1020.9
20260902015351 26 329 0.0 0.0 0.00 0.00 0.00 75 1020.9
20260902015248 26 329 0.0 0.0 0.00 0.00 0.00 75 1020.9
20260902015145 26 329 0.0 0.0 0.00 0.00 0.00 75 1020.9
20260902015042 26 329 0.0 0.0 0.00 0.00 0.00 75 1020.9
20260902014943 27 329 0.0 0.0 0.00 0.00 0.00 75 1020.9
20260902014842 27 329 0.0 0.0 0.00 0.00 0.00 75 1020.8
20260902014743 27 329 0.0 0.0 0.00 0.00 0.00 75 1020.8
20260902014634 27 329 0.0 0.0 0.00 0.00 0.00 75 1020.8
20260902014534 27 329 0.0 0.0 0.00 0.00 0.00 75 1020.7
20260902014432 27 329 0.0 0.0 0.00 0.00 0.00 75 1020.8
20260902014333 27 329 0.0 0.0 0.00 0.00 0.00 75 1020.8
20260902014233 27 329 0.0 0.0 0.00 0.00 0.00 75 1020.8
20260902014133 27 329 0.0 0.0 0.00 0.00 0.00 75 1020.7
20260902014030 27 329 0.0 0.0 0.00 0.00 0.00 75 1020.6
20260902013931 27 329 0.0 0.0 0.00 0.00 0.00 75 1020.6
20260902013828 27 329 0.0 0.0 0.00 0.00 0.00 75 1020.6
20260902013727 27 328 0.0 0.0 0.00 0.00 0.00 76 1020.7
20260902013626 27 328 0.0 0.0 0.00 0.00 0.00 76 1020.6
20260902013525 27 328 0.0 0.0 0.00 0.00 0.00 76 1020.7
20260902013424 27 328 0.0 0.0 0.00 0.00 0.00 76 1020.6
20260902013323 27 328 0.0 0.0 0.00 0.00 0.00 76 1020.7
20260902013220 27 328 0.0 0.0 0.00 0.00 0.00 76 1020.6
20260902013112 27 327 0.0 0.0 0.00 0.00 0.00 75 1020.7
20260902013011 27 327 0.0 0.0 0.00 0.00 0.00 75 1020.7
20260902012911 27 327 0.0 0.0 0.00 0.00 0.00 75 1020.6
20260902012811 27 327 0.0 0.0 0.00 0.00 0.00 75 1020.7
20260902012710 27 327 0.0 0.0 0.00 0.00 0.00 75 1020.7
20260902012605 27 327 0.0 0.0 0.00 0.00 0.00 74 1020.7
20260902012505 27 326 0.0 0.0 0.00 0.00 0.00 74 1020.7
20260902012404 27 326 0.0 0.0 0.00 0.00 0.00 74 1020.8
20260902012309 27 325 0.0 0.0 0.00 0.00 0.00 73 1020.7
20260902012205 27 324 0.0 0.0 0.00 0.00 0.00 73 1020.7
20260902012102 27 321 0.0 0.0 0.00 0.00 0.00 72 1020.6
20260902012002 27 313 0.0 0.0 0.00 0.00 0.00 72 1020.7
20260902011902 27 317 0.0 0.0 0.00 0.00 0.00 72 1020.6
20260902011801 27 319 0.0 0.0 0.00 0.00 0.00 72 1020.6
20260902011659 27 319 0.0 0.0 0.00 0.00 0.00 72 1020.6
20260902011555 27 321 0.0 0.0 0.00 0.00 0.00 71 1020.6
20260902011452 27 327 0.0 0.0 0.00 0.00 0.00 70 1020.6
20260902011353 27 329 0.0 0.0 0.00 0.00 0.00 70 1020.7
20260902011251 27 329 0.0 0.0 0.00 0.00 0.00 70 1020.6
20260902011149 27 330 0.0 0.0 0.00 0.00 0.00 70 1020.7
20260902011049 27 330 0.0 0.0 0.00 0.00 0.00 70 1020.7
20260902010947 27 330 0.0 0.0 0.00 0.00 0.00 70 1020.6
20260902010847 28 330 0.0 0.0 0.00 0.00 0.00 69 1020.5
20260902010745 28 330 0.0 0.0 0.00 0.00 0.00 69 1020.5
20260902010643 28 330 0.0 0.0 0.00 0.00 0.00 69 1020.5
20260902010542 28 330 0.0 0.0 0.00 0.00 0.00 69 1020.5
20260902010442 28 330 0.0 0.0 0.00 0.00 0.00 68 1020.6
20260902010340 28 330 0.0 0.0 0.00 0.00 0.00 68 1020.6
20260902010240 28 330 0.0 0.0 0.00 0.00 0.00 68 1020.6
20260902010137 28 330 0.0 0.0 0.00 0.00 0.00 68 1020.5
20260902010031 28 330 0.0 0.0 0.00 0.00 0.00 68 1020.5
20260902005931 28 330 0.0 0.0 0.00 0.00 0.00 68 1020.5
20260902005831 28 330 0.0 0.0 0.00 0.00 0.00 68 1020.5
20260902005730 28 330 0.0 0.0 0.00 0.00 0.00 67 1020.5
20260902005627 28 330 0.0 0.0 0.00 0.00 0.00 67 1020.5
20260902005527 28 330 0.0 0.0 0.00 0.00 0.00 67 1020.4
20260902005426 28 330 0.0 0.0 0.00 0.00 0.00 67 1020.4
20260902005325 28 330 0.0 0.0 0.00 0.00 0.00 67 1020.4
20260902005222 28 330 0.0 0.0 0.00 0.00 0.00 67 1020.5
20260902005121 28 330 0.0 0.0 0.00 0.00 0.00 66 1020.5
20260902005021 28 330 0.0 0.0 0.00 0.00 0.00 66 1020.4
20260902004919 28 330 0.0 0.0 0.00 0.00 0.00 66 1020.5
20260902004818 28 330 0.0 0.0 0.00 0.00 0.00 66 1020.4
20260902004717 28 330 0.0 0.0 0.00 0.00 0.00 66 1020.4
20260902004615 28 330 0.0 0.0 0.00 0.00 0.00 66 1020.4
20260902004508 28 330 0.0 0.0 0.00 0.00 0.00 65 1020.4
20260902004404 28 330 0.0 0.0 0.00 0.00 0.00 65 1020.4
20260902004303 28 330 0.0 0.0 0.00 0.00 0.00 66 1020.3
20260902004204 28 330 0.0 0.0 0.00 0.00 0.00 65 1020.3
20260902004104 28 330 0.0 0.0 0.00 0.00 0.00 65 1020.3
20260902004002 28 330 0.0 0.0 0.00 0.00 0.00 65 1020.3
20260902003902 28 330 0.0 0.0 0.00 0.00 0.00 65 1020.3
20260902003802 28 330 0.0 0.0 0.00 0.00 0.00 65 1020.3
20260902003701 28 330 0.0 0.0 0.00 0.00 0.00 65 1020.3
20260902003558 28 330 0.0 0.0 0.00 0.00 0.00 65 1020.3
20260902003458 28 330 0.0 0.0 0.00 0.00 0.00 65 1020.2
20260902003357 28 330 0.0 0.0 0.00 0.00 0.00 65 1020.4
20260902003256 28 330 0.0 0.0 0.00 0.00 0.00 65 1020.3
20260902003155 28 330 0.0 0.0 0.00 0.00 0.00 65 1020.3
20260902003052 28 330 0.0 0.0 0.00 0.00 0.00 65 1020.3
20260902002947 28 330 0.0 0.0 0.00 0.00 0.00 65 1020.3
20260902002847 28 330 0.0 0.0 0.00 0.00 0.00 65 1020.3
20260902002746 28 330 0.0 0.0 0.00 0.00 0.00 65 1020.3
20260902002645 28 330 0.0 0.0 0.00 0.00 0.00 65 1020.4
20260902002543 28 330 0.0 0.0 0.00 0.00 0.00 65 1020.4
20260902002444 28 330 0.0 0.0 0.00 0.00 0.00 65 1020.3
20260902002339 28 330 0.0 0.0 0.00 0.00 0.00 65 1020.3
20260902002241 28 330 0.0 0.0 0.00 0.00 0.00 65 1020.3
20260902002137 28 330 0.0 0.0 0.00 0.00 0.00 65 1020.3
20260902002037 28 330 0.0 0.0 0.00 0.00 0.00 65 1020.4
20260902001936 28 330 0.0 0.0 0.00 0.00 0.00 65 1020.3
20260902001836 28 330 0.0 0.0 0.00 0.00 0.00 65 1020.3
20260902001732 28 330 0.0 0.0 0.00 0.00 0.00 65 1020.4
20260902001633 28 330 0.0 0.0 0.00 0.00 0.00 65 1020.4
20260902001531 28 330 0.0 0.0 0.00 0.00 0.00 65 1020.5
20260902001425 28 330 0.0 0.0 0.00 0.00 0.00 65 1020.4
20260902001325 28 330 0.0 0.0 0.00 0.00 0.00 65 1020.4
20260902001225 28 330 0.0 0.0 0.00 0.00 0.00 65 1020.4
20260902001123 28 330 0.0 0.0 0.00 0.00 0.00 65 1020.4
20260902001021 28 330 0.0 0.0 0.00 0.00 0.00 65 1020.3
20260902000921 28 330 0.0 0.0 0.00 0.00 0.00 65 1020.4
20260902000819 28 330 0.0 0.0 0.00 0.00 0.00 65 1020.4
20260902000719 28 330 0.0 0.0 0.00 0.00 0.00 65 1020.4
20260902000617 28 330 0.0 0.0 0.00 0.00 0.00 65 1020.4
20260902000514 28 330 0.0 0.0 0.00 0.00 0.00 65 1020.4
20260902000409 28 330 0.0 0.0 0.00 0.00 0.00 65 1020.4
20260902000307 28 330 0.0 0.0 0.00 0.00 0.00 65 1020.4
20260902000211 28 330 0.0 0.0 0.00 0.00 0.00 65 1020.5
20260902000107 28 330 0.0 0.0 0.00 0.00 0.00 65 1020.4
20260902000009 28 330 0.0 0.0 0.00 0.00 0.00 65 1020.4
20260901235902 28 330 0.0 0.0 0.00 0.00 0.00 65 1020.5
20260901235802 28 330 0.0 0.0 0.00 0.00 0.00 65 1020.4
20260901235703 28 330 0.0 0.0 0.00 0.00 0.00 65 1020.4
20260901235601 28 330 0.0 0.0 0.00 0.00 0.00 65 1020.5
20260901235459 28 330 0.0 0.0 0.00 0.00 0.00 65 1020.4
20260901235358 28 330 0.0 0.0 0.00 0.00 0.00 65 1020.4
20260901235258 28 330 0.0 0.0 0.00 0.00 0.00 65 1020.6
20260901235156 28 330 0.0 0.0 0.00 0.00 0.00 65 1020.5
20260901235054 28 330 0.0 0.0 0.00 0.00 0.00 65 1020.5
20260901234952 28 330 0.0 0.0 0.00 0.00 0.00 65 1020.5
20260901234852 28 330 0.0 0.0 0.00 0.00 0.00 65 1020.5
20260901234751 28 330 0.0 0.0 0.00 0.00 0.00 65 1020.5
20260901234647 28 330 0.0 0.0 0.00 0.00 0.00 65 1020.5
20260901234549 28 330 0.0 0.0 0.00 0.00 0.00 65 1020.5
20260901234447 28 330 0.0 0.0 0.00 0.00 0.00 65 1020.4
20260901234339 28 330 0.0 0.0 0.00 0.00 0.00 65 1020.5
20260901234241 28 330 0.0 0.0 0.00 0.00 0.00 65 1020.5
20260901234140 28 330 0.0 0.0 0.00 0.00 0.00 65 1020.5
20260901234039 29 330 0.0 0.0 0.00 0.00 0.00 65 1020.4
20260901233937 29 330 0.0 0.0 0.00 0.00 0.00 65 1020.5
20260901233832 29 330 0.0 0.0 0.00 0.00 0.00 65 1020.4
20260901233732 29 330 0.0 0.0 0.00 0.00 0.00 65 1020.5
20260901233633 29 330 0.0 0.0 0.00 0.00 0.00 65 1020.4
20260901233533 29 330 0.0 0.0 0.00 0.00 0.00 65 1020.5
20260901233430 29 330 0.0 0.0 0.00 0.00 0.00 66 1020.5
20260901233330 29 330 0.0 0.0 0.00 0.00 0.00 65 1020.5
20260901233230 29 330 0.0 0.0 0.00 0.00 0.00 65 1020.5
20260901233126 29 330 0.0 0.0 0.00 0.00 0.00 65 1020.5
20260901233026 29 330 0.0 0.0 0.00 0.00 0.00 65 1020.5
20260901232924 29 330 0.0 0.0 0.00 0.00 0.00 65 1020.5
20260901232818 29 330 0.0 0.0 0.00 0.00 0.00 65 1020.5
20260901232719 29 330 0.0 0.0 0.00 0.00 0.00 65 1020.5
20260901232618 29 330 0.0 0.0 0.00 0.00 0.00 65 1020.5
20260901232517 29 330 0.0 0.0 0.00 0.00 0.00 65 1020.5
20260901232414 29 330 0.0 0.0 0.00 0.00 0.00 65 1020.5
20260901232314 29 330 0.0 0.0 0.00 0.00 0.00 65 1020.6
20260901232213 29 330 0.0 0.0 0.00 0.00 0.00 65 1020.5
20260901232112 29 330 0.0 0.0 0.00 0.00 0.00 65 1020.6
20260901232011 29 330 0.0 0.0 0.00 0.00 0.00 65 1020.6
20260901231909 29 330 0.0 0.0 0.00 0.00 0.00 65 1020.7
20260901231804 29 330 0.0 0.0 0.00 0.00 0.00 65 1020.6
20260901231702 29 330 0.0 0.0 0.00 0.00 0.00 65 1020.7
20260901231604 29 330 0.0 0.0 0.00 0.00 0.00 65 1020.6
20260901231502 29 330 0.0 0.0 0.00 0.00 0.00 65 1020.7
20260901231402 29 330 0.0 0.0 0.00 0.00 0.00 65 1020.7
20260901231255 29 330 0.0 0.0 0.00 0.00 0.00 65 1020.8
20260901231156 29 330 0.0 0.0 0.00 0.00 0.00 65 1020.8
20260901231056 29 330 0.0 0.0 0.00 0.00 0.00 65 1020.8
20260901230955 29 330 0.0 0.0 0.00 0.00 0.00 65 1020.7
20260901230853 29 330 0.0 0.0 0.00 0.00 0.00 65 1020.8
20260901230752 29 330 0.0 0.0 0.00 0.00 0.00 64 1020.8
20260901230651 30 330 0.0 0.0 0.00 0.00 0.00 64 1020.9
20260901230550 30 330 0.0 0.0 0.00 0.00 0.00 64 1020.8
20260901230448 30 330 0.0 0.0 0.00 0.00 0.00 64 1020.8
20260901230348 30 330 0.0 0.0 0.00 0.00 0.00 64 1020.8
20260901230245 30 330 0.0 0.0 0.00 0.00 0.00 64 1020.9
20260901230145 30 330 0.0 0.0 0.00 0.00 0.00 64 1020.9
20260901230042 30 330 0.0 0.0 0.00 0.00 0.00 64 1020.9
20260901225943 30 330 0.0 0.0 0.00 0.00 0.00 64 1020.9
20260901225840 30 330 0.0 0.0 0.00 0.00 0.00 64 1020.9
20260901225735 30 330 0.0 0.0 0.00 0.00 0.00 63 1020.9
20260901225634 30 330 0.0 0.0 0.00 0.00 0.00 63 1020.9
20260901225535 30 330 0.0 0.0 0.00 0.00 0.00 63 1020.8
20260901225432 30 330 0.0 0.0 0.00 0.00 0.00 63 1020.8
20260901225331 30 330 0.0 0.0 0.00 0.00 0.00 64 1020.7
20260901225231 30 330 0.0 0.0 0.00 0.00 0.00 63 1020.8
20260901225129 30 330 0.0 0.0 0.00 0.00 0.00 63 1020.7
20260901225029 30 330 0.0 0.0 0.00 0.00 0.00 63 1020.7
20260901224927 30 330 0.0 0.0 0.00 0.00 0.00 64 1020.6
20260901224825 30 330 0.0 0.0 0.00 0.00 0.00 64 1020.7
20260901224725 30 330 0.0 0.0 0.00 0.00 0.00 64 1020.7
20260901224622 30 330 0.0 0.0 0.00 0.00 0.00 64 1020.7
20260901224521 30 330 0.0 0.0 0.00 0.00 0.00 64 1020.7
20260901224421 30 330 0.0 0.0 0.00 0.00 0.00 64 1020.6
20260901224318 30 330 0.0 0.0 0.00 0.00 0.00 64 1020.6
20260901224209 30 330 0.0 0.0 0.00 0.00 0.00 64 1020.6
20260901224107 30 330 0.0 0.0 0.00 0.00 0.00 65 1020.7
20260901224008 30 330 0.0 0.0 0.00 0.00 0.00 65 1020.7
20260901223907 30 330 0.0 0.0 0.00 0.00 0.00 65 1020.7
20260901223809 30 330 0.0 0.0 0.00 0.00 0.00 65 1020.5
20260901223705 30 330 0.0 0.0 0.00 0.00 0.00 63 1020.6
20260901223601 30 330 0.0 0.0 0.00 0.00 0.00 63 1020.6
20260901223503 30 330 0.0 0.0 0.00 0.00 0.00 63 1020.6
20260901223403 30 330 0.0 0.0 0.00 0.00 0.00 62 1020.7
20260901223303 30 330 0.0 0.0 0.00 0.00 0.00 63 1020.6
20260901223200 30 330 0.0 0.0 0.00 0.00 0.00 63 1020.7
20260901223101 30 330 0.0 0.0 0.00 0.00 0.00 63 1020.6
20260901222957 30 330 0.0 0.0 0.00 0.00 0.00 63 1020.6
20260901222859 30 330 0.0 0.0 0.00 0.00 0.00 64 1020.7
20260901222757 30 330 0.0 0.0 0.00 0.00 0.00 63 1020.6
20260901222650 30 330 0.0 0.0 0.00 0.00 0.00 63 1020.6
20260901222550 30 330 0.0 0.0 0.00 0.00 0.00 65 1020.6
20260901222451 30 330 0.0 0.0 0.00 0.00 0.00 64 1020.7
20260901222349 30 330 0.0 0.0 0.00 0.00 0.00 63 1020.6
20260901222246 30 330 0.0 0.0 0.00 0.00 0.00 63 1020.6
20260901222142 30 330 0.0 0.0 0.00 0.00 0.00 62 1020.6
20260901222041 30 330 0.0 0.0 0.00 0.00 0.00 62 1020.6
20260901221940 30 330 0.0 0.0 0.00 0.00 0.00 62 1020.6
20260901221841 30 330 0.0 0.0 0.00 0.00 0.00 62 1020.6
20260901221740 30 330 0.0 0.0 0.00 0.00 0.00 62 1020.6
20260901221637 31 330 0.0 0.0 0.00 0.00 0.00 62 1020.5
20260901221539 31 330 0.0 0.0 0.00 0.00 0.00 62 1020.5
20260901221438 31 330 0.0 0.0 0.00 0.00 0.00 61 1020.5
20260901221336 31 330 0.0 0.0 0.00 0.00 0.00 62 1020.6
20260901221234 31 330 0.0 0.0 0.00 0.00 0.00 63 1020.6
20260901221126 31 330 0.0 0.0 0.00 0.00 0.00 63 1020.6
20260901221023 31 330 0.0 0.0 0.00 0.00 0.00 62 1020.6
20260901220924 31 330 0.0 0.0 0.00 0.00 0.00 64 1020.5
20260901220824 31 330 0.0 0.0 0.00 0.00 0.00 62 1020.5
20260901220725 31 330 0.0 0.0 0.00 0.00 0.00 62 1020.6
20260901220622 31 330 0.0 0.0 0.00 0.00 0.00 63 1020.5
20260901220522 31 330 0.0 0.0 0.00 0.00 0.00 61 1020.6
20260901220419 31 330 0.0 0.0 0.00 0.00 0.00 61 1020.5
20260901220321 31 330 0.0 0.0 0.00 0.00 0.00 61 1020.5
20260901220218 31 330 0.0 0.0 0.00 0.00 0.00 60 1020.5
20260901220119 31 330 0.0 0.0 0.00 0.00 0.00 60 1020.5
20260901220016 31 330 0.0 0.0 0.00 0.00 0.00 62 1020.4
20260901215916 31 330 0.0 0.0 0.00 0.00 0.00 60 1020.5
20260901215816 31 330 0.0 0.0 0.00 0.00 0.00 60 1020.5
20260901215716 31 330 0.0 0.0 0.00 0.00 0.00 60 1020.6
20260901215615 31 330 0.0 0.0 0.00 0.00 0.00 60 1020.6
20260901215515 31 330 0.0 0.0 0.00 0.00 0.00 60 1020.6
20260901215414 31 330 0.0 0.0 0.00 0.00 0.00 63 1020.6
20260901215315 31 330 0.0 0.0 0.00 0.00 0.00 61 1020.5
20260901215215 31 330 0.0 0.0 0.00 0.00 0.00 60 1020.6
20260901215114 31 330 0.0 0.0 0.00 0.00 0.00 62 1020.6
20260901215012 31 330 0.0 0.0 0.00 0.00 0.00 61 1020.6
20260901214912 31 330 0.0 0.0 0.00 0.00 0.00 62 1020.6
20260901214811 31 330 0.0 0.0 0.00 0.00 0.00 63 1020.6
20260901214708 31 330 0.0 0.0 0.00 0.00 0.00 62 1020.6
20260901214608 31 330 0.0 0.0 0.00 0.00 0.00 62 1020.5
20260901214507 31 330 0.0 0.0 0.00 0.00 0.00 63 1020.5
20260901214403 31 330 0.0 0.0 0.00 0.00 0.00 61 1020.5
20260901214305 31 330 0.0 0.0 0.00 0.00 0.00 63 1020.5
20260901214203 31 330 0.0 0.0 0.00 0.00 0.00 61 1020.6
20260901214105 31 330 0.0 0.0 0.00 0.00 0.00 60 1020.5
20260901214005 31 330 0.0 0.0 0.00 0.00 0.00 60 1020.5
20260901213859 31 329 0.0 0.0 0.00 0.00 0.00 61 1020.5
20260901213757 31 329 0.0 0.0 0.00 0.00 0.00 61 1020.5
20260901213657 31 329 0.0 0.0 0.00 0.00 0.00 63 1020.5
20260901213559 31 329 0.0 0.0 0.00 0.00 0.00 63 1020.5
20260901213458 31 329 0.0 0.0 0.00 0.00 0.00 61 1020.5
20260901213353 31 329 0.0 0.0 0.00 0.00 0.00 61 1020.5
20260901213252 31 329 0.0 0.0 0.00 0.00 0.00 61 1020.5
20260901213151 31 329 0.0 0.0 0.00 0.00 0.00 61 1020.5
20260901213052 31 329 0.0 0.0 0.00 0.00 0.00 61 1020.6
20260901212953 31 329 0.0 0.0 0.00 0.00 0.00 63 1020.6
20260901212845 31 329 0.0 0.0 0.00 0.00 0.00 63 1020.6
20260901212746 31 329 0.0 0.0 0.00 0.00 0.00 62 1020.6
20260901212647 31 329 0.0 0.0 0.00 0.00 0.00 61 1020.6
20260901212546 31 321 0.0 0.0 0.00 0.00 0.00 61 1020.7
20260901212446 31 313 0.0 0.0 0.00 0.00 0.00 62 1020.6
20260901212347 31 290 0.0 0.0 0.00 0.00 0.00 61 1020.6
20260901212244 31 290 0.0 0.0 0.00 0.00 0.00 63 1020.7
20260901212143 31 290 0.0 0.0 0.00 0.00 0.00 62 1020.6
20260901212042 31 290 0.0 0.0 0.00 0.00 0.00 61 1020.7
20260901211943 31 288 0.0 0.0 0.00 0.00 0.00 62 1020.7
20260901211839 31 285 0.0 0.0 0.00 0.00 0.00 63 1020.7
20260901211739 31 13 0.0 0.0 0.00 0.00 0.00 63 1020.7
20260901211636 31 13 0.0 0.0 0.00 0.00 0.00 62 1020.7
20260901211537 31 13 0.0 0.0 0.00 0.00 0.00 63 1020.8
20260901211436 31 13 0.0 0.0 0.00 0.00 0.00 62 1020.7
20260901211335 31 13 0.0 0.0 0.00 0.00 0.00 62 1020.8
20260901211232 31 12 0.0 0.0 0.00 0.00 0.00 62 1020.7
20260901211130 30 13 0.0 0.0 0.00 0.00 0.00 63 1020.8
20260901211030 31 9 0.0 0.0 0.00 0.00 0.00 62 1020.8
20260901210930 31 10 0.0 0.0 0.00 0.00 0.00 64 1020.8
20260901210831 30 40 0.0 6.4 0.00 0.00 0.00 62 1020.8
20260901210731 31 40 0.0 6.4 0.00 0.00 0.00 62 1020.8
20260901210630 31 42 0.0 6.4 0.00 0.00 0.00 63 1020.8
20260901210529 31 335 0.0 6.4 0.00 0.00 0.00 64 1020.8
20260901210429 31 334 0.0 6.4 0.00 0.00 0.00 65 1020.8
20260901210326 30 334 0.0 6.4 0.00 0.00 0.00 62 1020.8
20260901210225 30 334 0.0 6.4 0.00 0.00 0.00 61 1020.8
20260901210125 30 334 0.0 6.4 0.00 0.00 0.00 62 1020.8
20260901210022 30 334 0.0 6.4 0.00 0.00 0.00 63 1020.8
20260901205923 30 341 0.0 6.4 0.00 0.00 0.00 62 1020.8
20260901205821 30 333 0.0 6.4 0.00 0.00 0.00 62 1020.9
20260901205719 30 330 0.0 3.2 0.00 0.00 0.00 63 1020.8
20260901205616 30 336 0.0 0.0 0.00 0.00 0.00 62 1020.8
20260901205516 31 344 0.0 0.0 0.00 0.00 0.00 63 1020.9
20260901205417 31 328 0.0 0.0 0.00 0.00 0.00 63 1020.9
20260901205316 31 25 0.0 0.0 0.00 0.00 0.00 62 1020.8
20260901205217 31 25 0.0 0.0 0.00 0.00 0.00 65 1020.9
20260901205112 31 355 0.0 0.0 0.00 0.00 0.00 63 1021.0
20260901205010 31 0 0.0 0.0 0.00 0.00 0.00 64 1020.9
20260901204911 31 5 0.0 0.0 0.00 0.00 0.00 66 1020.9
20260901204811 31 331 0.0 0.0 0.00 0.00 0.00 64 1020.9